Wetterdaten: Montag, 11.08.2014
Datum Zeit Temp. Aussen +5cm Feuchte Auss Luftdruck Regen Sonnenschein Regendauer UV Solar Windben
11.08.2014 00:00 16,7 C 15,0 C 80 % 1006,0 hPa 0,0 l/m 0 min 0 min 0,0 UV-I 0 W/m 63,7 km/h (8 Bft)
11.08.2014 00:02 16,7 C 15,0 C 80 % 1006,1 hPa 0,0 l/m 0 min 0 min 0,0 UV-I 0 W/m 38,9 km/h (6 Bft)
11.08.2014 00:05 16,7 C 15,0 C 80 % 1006,2 hPa 0,0 l/m 0 min 0 min 0,0 UV-I 0 W/m 56,5 km/h (7 Bft)
11.08.2014 00:06 16,6 C 15,0 C 80 % 1006,1 hPa 0,0 l/m 0 min 0 min 0,0 UV-I 0 W/m 56,5 km/h (7 Bft)
11.08.2014 00:08 16,6 C 15,0 C 80 % 1006,2 hPa 0,0 l/m 0 min 0 min 0,0 UV-I 0 W/m 53,0 km/h (7 Bft)
11.08.2014 00:10 16,6 C 15,0 C 80 % 1006,2 hPa 0,0 l/m 0 min 0 min 0,0 UV-I 0 W/m 60,2 km/h (7 Bft)
11.08.2014 00:12 16,6 C 15,0 C 80 % 1006,2 hPa 0,0 l/m 0 min 0 min 0,0 UV-I 0 W/m 53,0 km/h (7 Bft)
11.08.2014 00:14 16,5 C 15,0 C 80 % 1006,2 hPa 0,0 l/m 0 min 0 min 0,0 UV-I 0 W/m 53,0 km/h (7 Bft)
11.08.2014 00:16 16,5 C 15,0 C 80 % 1006,3 hPa 0,0 l/m 0 min 0 min 0,0 UV-I 0 W/m 63,7 km/h (8 Bft)
11.08.2014 00:18 16,4 C 15,0 C 80 % 1006,2 hPa 0,0 l/m 0 min 0 min 0,0 UV-I 0 W/m 46,0 km/h (6 Bft)
11.08.2014 00:20 16,4 C 15,0 C 80 % 1006,4 hPa 0,0 l/m 0 min 0 min 0,0 UV-I 0 W/m 56,5 km/h (7 Bft)
11.08.2014 00:22 16,4 C 15,0 C 80 % 1006,4 hPa 0,0 l/m 0 min 0 min 0,0 UV-I 0 W/m 35,4 km/h (5 Bft)
11.08.2014 00:24 16,4 C 14,4 C 80 % 1006,4 hPa 0,0 l/m 0 min 0 min 0,0 UV-I 0 W/m 49,5 km/h (6 Bft)
11.08.2014 00:26 16,4 C 14,4 C 80 % 1006,5 hPa 0,0 l/m 0 min 0 min 0,0 UV-I 0 W/m 60,2 km/h (7 Bft)
11.08.2014 00:28 16,4 C 15,0 C 80 % 1006,4 hPa 0,0 l/m 0 min 0 min 0,0 UV-I 0 W/m 60,2 km/h (7 Bft)
11.08.2014 00:30 16,4 C 14,4 C 80 % 1006,5 hPa 0,0 l/m 0 min 0 min 0,0 UV-I 0 W/m 46,0 km/h (6 Bft)
11.08.2014 00:32 16,4 C 14,4 C 80 % 1006,4 hPa 0,0 l/m 0 min 0 min 0,0 UV-I 0 W/m 67,1 km/h (8 Bft)
11.08.2014 00:34 16,4 C 14,4 C 80 % 1006,5 hPa 0,0 l/m 0 min 0 min 0,0 UV-I 0 W/m 60,2 km/h (7 Bft)
11.08.2014 00:36 16,3 C 14,4 C 80 % 1006,5 hPa 0,0 l/m 0 min 0 min 0,0 UV-I 0 W/m 60,2 km/h (7 Bft)
11.08.2014 00:38 16,3 C 14,4 C 80 % 1006,6 hPa 0,0 l/m 0 min 0 min 0,0 UV-I 0 W/m 28,2 km/h (4 Bft)
11.08.2014 00:40 16,3 C 14,4 C 81 % 1006,5 hPa 0,0 l/m 0 min 0 min 0,0 UV-I 0 W/m 35,4 km/h (5 Bft)
11.08.2014 00:42 16,2 C 14,4 C 81 % 1006,6 hPa 0,0 l/m 0 min 0 min 0,0 UV-I 0 W/m 53,0 km/h (7 Bft)
11.08.2014 00:44 16,2 C 14,4 C 81 % 1006,6 hPa 0,0 l/m 0 min 0 min 0,0 UV-I 0 W/m 38,9 km/h (6 Bft)
11.08.2014 00:46 16,2 C 14,4 C 81 % 1006,7 hPa 0,0 l/m 0 min 0 min 0,0 UV-I 0 W/m 38,9 km/h (6 Bft)
11.08.2014 00:48 16,2 C 14,4 C 81 % 1006,7 hPa 0,0 l/m 0 min 0 min 0,0 UV-I 0 W/m 46,0 km/h (6 Bft)
11.08.2014 00:50 16,2 C 14,4 C 82 % 1006,7 hPa 0,0 l/m 0 min 0 min 0,0 UV-I 0 W/m 35,4 km/h (5 Bft)
11.08.2014 00:52 16,1 C 14,4 C 82 % 1006,7 hPa 0,0 l/m 0 min 0 min 0,0 UV-I 0 W/m 42,4 km/h (6 Bft)
11.08.2014 00:54 16,1 C 14,4 C 82 % 1006,8 hPa 0,0 l/m 0 min 0 min 0,0 UV-I 0 W/m 42,4 km/h (6 Bft)
11.08.2014 00:56 16,1 C 14,4 C 82 % 1006,9 hPa 0,0 l/m 0 min 0 min 0,0 UV-I 0 W/m 46,0 km/h (6 Bft)
11.08.2014 00:58 16,1 C 14,4 C 82 % 1006,8 hPa 0,0 l/m 0 min 0 min 0,0 UV-I 0 W/m 53,0 km/h (7 Bft)
11.08.2014 01:00 16,1 C 14,4 C 82 % 1006,8 hPa 0,0 l/m 0 min 0 min 0,0 UV-I 0 W/m 46,0 km/h (6 Bft)
11.08.2014 01:02 16,1 C 14,4 C 82 % 1006,8 hPa 0,0 l/m 0 min 0 min 0,0 UV-I 0 W/m 53,0 km/h (7 Bft)
11.08.2014 01:04 16,1 C 14,4 C 82 % 1006,8 hPa 0,0 l/m 0 min 0 min 0,0 UV-I 0 W/m 56,5 km/h (7 Bft)
11.08.2014 01:06 16,1 C 14,4 C 82 % 1006,9 hPa 0,0 l/m 0 min 0 min 0,0 UV-I 0 W/m 46,0 km/h (6 Bft)
11.08.2014 01:08 16,0 C 14,4 C 82 % 1006,9 hPa 0,0 l/m 0 min 0 min 0,0 UV-I 0 W/m 46,0 km/h (6 Bft)
11.08.2014 01:10 16,0 C 14,4 C 82 % 1006,9 hPa 0,0 l/m 0 min 0 min 0,0 UV-I 0 W/m 38,9 km/h (6 Bft)
11.08.2014 01:12 16,0 C 14,4 C 82 % 1006,9 hPa 0,0 l/m 0 min 0 min 0,0 UV-I 0 W/m 60,2 km/h (7 Bft)
11.08.2014 01:14 16,0 C 14,4 C 82 % 1007,0 hPa 0,0 l/m 0 min 0 min 0,0 UV-I 0 W/m 38,9 km/h (6 Bft)
11.08.2014 01:16 15,9 C 14,4 C 82 % 1007,0 hPa 0,0 l/m 0 min 0 min 0,0 UV-I 0 W/m 35,4 km/h (5 Bft)
11.08.2014 01:18 15,9 C 14,4 C 82 % 1007,0 hPa 0,0 l/m 0 min 0 min 0,0 UV-I 0 W/m 38,9 km/h (6 Bft)
11.08.2014 01:20 15,9 C 14,4 C 82 % 1007,0 hPa 0,0 l/m 0 min 0 min 0,0 UV-I 0 W/m 38,9 km/h (6 Bft)
11.08.2014 01:22 15,8 C 14,4 C 83 % 1007,1 hPa 0,0 l/m 0 min 0 min 0,0 UV-I 0 W/m 60,2 km/h (7 Bft)
11.08.2014 01:24 15,8 C 14,4 C 82 % 1007,1 hPa 0,0 l/m 0 min 0 min 0,0 UV-I 0 W/m 42,4 km/h (6 Bft)
11.08.2014 01:26 15,8 C 14,4 C 83 % 1007,0 hPa 0,0 l/m 0 min 0 min 0,0 UV-I 0 W/m 53,0 km/h (7 Bft)
11.08.2014 01:28 15,8 C 14,4 C 83 % 1007,0 hPa 0,0 l/m 0 min 0 min 0,0 UV-I 0 W/m 49,5 km/h (6 Bft)
11.08.2014 01:30 15,8 C 14,4 C 83 % 1007,1 hPa 0,0 l/m 0 min 0 min 0,0 UV-I 0 W/m 31,7 km/h (5 Bft)
11.08.2014 01:32 15,8 C 13,9 C 83 % 1007,1 hPa 0,0 l/m 0 min 0 min 0,0 UV-I 0 W/m 46,0 km/h (6 Bft)
11.08.2014 01:34 15,7 C 13,9 C 83 % 1007,1 hPa 0,0 l/m 0 min 0 min 0,0 UV-I 0 W/m 46,0 km/h (6 Bft)
11.08.2014 01:36 15,7 C 13,9 C 83 % 1007,1 hPa 0,0 l/m 0 min 0 min 0,0 UV-I 0 W/m 49,5 km/h (6 Bft)
11.08.2014 01:38 15,7 C 13,9 C 83 % 1007,1 hPa 0,0 l/m 0 min 0 min 0,0 UV-I 0 W/m 49,5 km/h (6 Bft)
11.08.2014 01:40 15,7 C 13,9 C 83 % 1007,1 hPa 0,0 l/m 0 min 0 min 0,0 UV-I 0 W/m 46,0 km/h (6 Bft)
11.08.2014 01:42 15,7 C 13,9 C 83 % 1007,1 hPa 0,0 l/m 0 min 0 min 0,0 UV-I 0 W/m 56,5 km/h (7 Bft)
11.08.2014 01:44 15,7 C 13,9 C 84 % 1007,1 hPa 0,0 l/m 0 min 0 min 0,0 UV-I 0 W/m 38,9 km/h (6 Bft)
11.08.2014 01:46 15,6 C 13,9 C 84 % 1007,1 hPa 0,0 l/m 0 min 0 min 0,0 UV-I 0 W/m 49,5 km/h (6 Bft)
11.08.2014 01:48 15,6 C 13,9 C 84 % 1007,1 hPa 0,0 l/m 0 min 0 min 0,0 UV-I 0 W/m 38,9 km/h (6 Bft)
11.08.2014 01:50 15,6 C 13,9 C 84 % 1007,1 hPa 0,0 l/m 0 min 0 min 0,0 UV-I 0 W/m 53,0 km/h (7 Bft)
11.08.2014 01:52 15,6 C 13,9 C 84 % 1007,2 hPa 0,0 l/m 0 min 0 min 0,0 UV-I 0 W/m 38,9 km/h (6 Bft)
11.08.2014 01:54 15,5 C 13,9 C 84 % 1007,1 hPa 0,0 l/m 0 min 0 min 0,0 UV-I 0 W/m 56,5 km/h (7 Bft)
11.08.2014 01:56 15,5 C 13,9 C 84 % 1007,2 hPa 0,0 l/m 0 min 0 min 0,0 UV-I 0 W/m 56,5 km/h (7 Bft)
11.08.2014 01:58 15,5 C 13,9 C 84 % 1007,1 hPa 0,0 l/m 0 min 0 min 0,0 UV-I 0 W/m 46,0 km/h (6 Bft)
11.08.2014 02:00 15,4 C 13,9 C 84 % 1007,2 hPa 0,0 l/m 0 min 0 min 0,0 UV-I 0 W/m 53,0 km/h (7 Bft)
11.08.2014 02:02 15,4 C 13,9 C 84 % 1007,2 hPa 0,0 l/m 0 min 0 min 0,0 UV-I 0 W/m 38,9 km/h (6 Bft)
11.08.2014 02:04 15,4 C 13,9 C 84 % 1007,2 hPa 0,0 l/m 0 min 0 min 0,0 UV-I 0 W/m 46,0 km/h (6 Bft)
11.08.2014 02:06 15,4 C 13,9 C 84 % 1007,2 hPa 0,0 l/m 0 min 0 min 0,0 UV-I 0 W/m 46,0 km/h (6 Bft)
11.08.2014 02:08 15,4 C 13,9 C 84 % 1007,2 hPa 0,0 l/m 0 min 0 min 0,0 UV-I 0 W/m 38,9 km/h (6 Bft)
11.08.2014 02:10 15,4 C 13,9 C 84 % 1007,3 hPa 0,0 l/m 0 min 0 min 0,0 UV-I 0 W/m 49,5 km/h (6 Bft)
11.08.2014 02:12 15,4 C 13,9 C 84 % 1007,3 hPa 0,0 l/m 0 min 0 min 0,0 UV-I 0 W/m 31,7 km/h (5 Bft)
11.08.2014 02:14 15,3 C 13,9 C 84 % 1007,3 hPa 0,0 l/m 0 min 0 min 0,0 UV-I 0 W/m 35,4 km/h (5 Bft)
11.08.2014 02:16 15,3 C 13,9 C 85 % 1007,3 hPa 0,0 l/m 0 min 0 min 0,0 UV-I 0 W/m 38,9 km/h (6 Bft)
11.08.2014 02:18 15,2 C 13,9 C 85 % 1007,3 hPa 0,0 l/m 0 min 0 min 0,0 UV-I 0 W/m 63,7 km/h (8 Bft)
11.08.2014 02:20 15,2 C 13,9 C 85 % 1007,3 hPa 0,0 l/m 0 min 0 min 0,0 UV-I 0 W/m 24,7 km/h (4 Bft)
11.08.2014 02:22 15,2 C 13,9 C 85 % 1007,3 hPa 0,0 l/m 0 min 0 min 0,0 UV-I 0 W/m 49,5 km/h (6 Bft)
11.08.2014 02:24 15,2 C 13,9 C 85 % 1007,4 hPa 0,0 l/m 0 min 0 min 0,0 UV-I 0 W/m 42,4 km/h (6 Bft)
11.08.2014 02:26 15,1 C 13,9 C 85 % 1007,3 hPa 0,0 l/m 0 min 0 min 0,0 UV-I 0 W/m 35,4 km/h (5 Bft)
11.08.2014 02:28 15,1 C 13,9 C 86 % 1007,4 hPa 0,0 l/m 0 min 0 min 0,0 UV-I 0 W/m 60,2 km/h (7 Bft)
11.08.2014 02:30 15,1 C 13,9 C 86 % 1007,4 hPa 0,0 l/m 0 min 0 min 0,0 UV-I 0 W/m 46,0 km/h (6 Bft)
11.08.2014 02:32 15,1 C 13,9 C 86 % 1007,3 hPa 0,0 l/m 0 min 0 min 0,0 UV-I 0 W/m 38,9 km/h (6 Bft)
11.08.2014 02:34 15,1 C 13,9 C 86 % 1007,3 hPa 0,0 l/m 0 min 0 min 0,0 UV-I 0 W/m 46,0 km/h (6 Bft)
11.08.2014 02:36 15,1 C 13,9 C 86 % 1007,3 hPa 0,0 l/m 0 min 0 min 0,0 UV-I 0 W/m 31,7 km/h (5 Bft)
11.08.2014 02:38 15,0 C 13,9 C 86 % 1007,4 hPa 0,0 l/m 0 min 0 min 0,0 UV-I 0 W/m 38,9 km/h (6 Bft)
11.08.2014 02:40 15,1 C 13,9 C 86 % 1007,4 hPa 0,0 l/m 0 min 0 min 0,0 UV-I 0 W/m 49,5 km/h (6 Bft)
11.08.2014 02:42 15,1 C 13,9 C 86 % 1007,5 hPa 0,0 l/m 0 min 0 min 0,0 UV-I 0 W/m 35,4 km/h (5 Bft)
11.08.2014 02:44 15,1 C 13,9 C 86 % 1007,3 hPa 0,0 l/m 0 min 0 min 0,0 UV-I 0 W/m 53,0 km/h (7 Bft)
11.08.2014 02:46 15,1 C 13,9 C 86 % 1007,5 hPa 0,0 l/m 0 min 0 min 0,0 UV-I 0 W/m 53,0 km/h (7 Bft)
11.08.2014 02:48 15,1 C 13,9 C 86 % 1007,4 hPa 0,0 l/m 0 min 0 min 0,0 UV-I 0 W/m 42,4 km/h (6 Bft)
11.08.2014 02:50 15,0 C 13,9 C 86 % 1007,4 hPa 0,0 l/m 0 min 0 min 0,0 UV-I 0 W/m 35,4 km/h (5 Bft)
11.08.2014 02:52 15,0 C 13,3 C 86 % 1007,4 hPa 0,0 l/m 0 min 0 min 0,0 UV-I 0 W/m 35,4 km/h (5 Bft)
11.08.2014 02:54 14,9 C 13,3 C 86 % 1007,5 hPa 0,0 l/m 0 min 0 min 0,0 UV-I 0 W/m 56,5 km/h (7 Bft)
11.08.2014 02:56 14,9 C 13,9 C 86 % 1007,5 hPa 0,0 l/m 0 min 0 min 0,0 UV-I 0 W/m 53,0 km/h (7 Bft)
11.08.2014 02:58 15,0 C 13,9 C 86 % 1007,5 hPa 0,0 l/m 0 min 0 min 0,0 UV-I 0 W/m 46,0 km/h (6 Bft)
11.08.2014 03:00 15,0 C 13,9 C 86 % 1007,6 hPa 0,0 l/m 0 min 0 min 0,0 UV-I 0 W/m 38,9 km/h (6 Bft)
11.08.2014 03:02 14,9 C 13,9 C 86 % 1007,7 hPa 0,0 l/m 0 min 0 min 0,0 UV-I 0 W/m 49,5 km/h (6 Bft)
11.08.2014 03:04 15,0 C 13,9 C 86 % 1007,7 hPa 0,0 l/m 0 min 0 min 0,0 UV-I 0 W/m 35,4 km/h (5 Bft)
11.08.2014 03:06 15,0 C 13,9 C 86 % 1007,7 hPa 0,0 l/m 0 min 0 min 0,0 UV-I 0 W/m 38,9 km/h (6 Bft)
11.08.2014 03:08 15,0 C 13,9 C 86 % 1007,7 hPa 0,0 l/m 0 min 0 min 0,0 UV-I 0 W/m 49,5 km/h (6 Bft)
11.08.2014 03:10 14,9 C 13,9 C 86 % 1007,7 hPa 0,0 l/m 0 min 0 min 0,0 UV-I 0 W/m 31,7 km/h (5 Bft)
11.08.2014 03:12 14,9 C 13,3 C 86 % 1007,8 hPa 0,0 l/m 0 min 0 min 0,0 UV-I 0 W/m 35,4 km/h (5 Bft)
11.08.2014 03:14 14,9 C 13,3 C 86 % 1007,8 hPa 0,0 l/m 0 min 0 min 0,0 UV-I 0 W/m 53,0 km/h (7 Bft)
11.08.2014 03:16 14,9 C 13,3 C 86 % 1007,8 hPa 0,0 l/m 0 min 0 min 0,0 UV-I 0 W/m 49,5 km/h (6 Bft)
11.08.2014 03:18 14,9 C 13,3 C 86 % 1007,8 hPa 0,0 l/m 0 min 0 min 0,0 UV-I 0 W/m 38,9 km/h (6 Bft)
11.08.2014 03:20 14,8 C 13,3 C 86 % 1007,9 hPa 0,0 l/m 0 min 0 min 0,0 UV-I 0 W/m 28,2 km/h (4 Bft)
11.08.2014 03:22 14,8 C 13,3 C 86 % 1007,9 hPa 0,0 l/m 0 min 0 min 0,0 UV-I 0 W/m 28,2 km/h (4 Bft)
11.08.2014 03:24 14,8 C 13,3 C 86 % 1007,9 hPa 0,0 l/m 0 min 0 min 0,0 UV-I 0 W/m 42,4 km/h (6 Bft)
11.08.2014 03:26 14,8 C 13,3 C 86 % 1008,0 hPa 0,0 l/m 0 min 0 min 0,0 UV-I 0 W/m 35,4 km/h (5 Bft)
11.08.2014 03:28 14,8 C 13,3 C 86 % 1007,9 hPa 0,0 l/m 0 min 0 min 0,0 UV-I 0 W/m 31,7 km/h (5 Bft)
11.08.2014 03:30 14,8 C 13,3 C 86 % 1007,9 hPa 0,0 l/m 0 min 0 min 0,0 UV-I 0 W/m 31,7 km/h (5 Bft)
11.08.2014 03:32 14,8 C 13,3 C 86 % 1007,9 hPa 0,0 l/m 0 min 0 min 0,0 UV-I 0 W/m 38,9 km/h (6 Bft)
11.08.2014 03:34 14,8 C 13,3 C 86 % 1008,0 hPa 0,0 l/m 0 min 0 min 0,0 UV-I 0 W/m 42,4 km/h (6 Bft)
11.08.2014 03:36 14,8 C 13,3 C 86 % 1008,1 hPa 0,0 l/m 0 min 0 min 0,0 UV-I 0 W/m 53,0 km/h (7 Bft)
11.08.2014 03:38 14,8 C 13,3 C 86 % 1008,1 hPa 0,0 l/m 0 min 0 min 0,0 UV-I 0 W/m 42,4 km/h (6 Bft)
11.08.2014 03:40 14,8 C 13,3 C 86 % 1008,1 hPa 0,0 l/m 0 min 0 min 0,0 UV-I 0 W/m 35,4 km/h (5 Bft)
11.08.2014 03:42 14,8 C 13,3 C 85 % 1008,2 hPa 0,0 l/m 0 min 0 min 0,0 UV-I 0 W/m 24,7 km/h (4 Bft)
11.08.2014 03:44 14,8 C 13,3 C 85 % 1008,1 hPa 0,0 l/m 0 min 0 min 0,0 UV-I 0 W/m 35,4 km/h (5 Bft)
11.08.2014 03:46 14,7 C 13,3 C 85 % 1008,1 hPa 0,0 l/m 0 min 0 min 0,0 UV-I 0 W/m 31,7 km/h (5 Bft)
11.08.2014 03:48 14,7 C 13,3 C 86 % 1008,1 hPa 0,0 l/m 0 min 0 min 0,0 UV-I 0 W/m 24,7 km/h (4 Bft)
11.08.2014 03:50 14,7 C 13,3 C 86 % 1008,2 hPa 0,0 l/m 0 min 0 min 0,0 UV-I 0 W/m 21,3 km/h (4 Bft)
11.08.2014 03:52 14,7 C 13,3 C 86 % 1008,3 hPa 0,0 l/m 0 min 0 min 0,0 UV-I 0 W/m 21,3 km/h (4 Bft)
11.08.2014 03:54 14,7 C 13,3 C 86 % 1008,3 hPa 0,0 l/m 0 min 0 min 0,0 UV-I 0 W/m 24,7 km/h (4 Bft)
11.08.2014 03:56 14,6 C 13,3 C 86 % 1008,3 hPa 0,0 l/m 0 min 0 min 0,0 UV-I 0 W/m 28,2 km/h (4 Bft)
11.08.2014 03:58 14,6 C 13,3 C 86 % 1008,3 hPa 0,0 l/m 0 min 0 min 0,0 UV-I 0 W/m 24,7 km/h (4 Bft)
11.08.2014 04:00 14,6 C 13,3 C 86 % 1008,3 hPa 0,0 l/m 0 min 0 min 0,0 UV-I 0 W/m 35,4 km/h (5 Bft)
11.08.2014 04:05 14,6 C 13,3 C 86 % 1008,4 hPa 0,0 l/m 0 min 0 min 0,0 UV-I 0 W/m 28,2 km/h (4 Bft)
11.08.2014 04:06 14,6 C 13,3 C 86 % 1008,4 hPa 0,0 l/m 0 min 0 min 0,0 UV-I 0 W/m 21,3 km/h (4 Bft)
11.08.2014 04:08 14,5 C 13,3 C 86 % 1008,3 hPa 0,0 l/m 0 min 0 min 0,0 UV-I 0 W/m 14,2 km/h (3 Bft)
11.08.2014 04:10 14,5 C 13,3 C 86 % 1008,3 hPa 0,0 l/m 0 min 0 min 0,0 UV-I 0 W/m 28,2 km/h (4 Bft)
11.08.2014 04:12 14,4 C 13,3 C 86 % 1008,4 hPa 0,0 l/m 0 min 0 min 0,0 UV-I 0 W/m 38,9 km/h (6 Bft)
11.08.2014 04:14 14,4 C 13,3 C 86 % 1008,4 hPa 0,0 l/m 0 min 0 min 0,0 UV-I 0 W/m 28,2 km/h (4 Bft)
11.08.2014 04:16 14,4 C 13,3 C 86 % 1008,4 hPa 0,0 l/m 0 min 0 min 0,0 UV-I 0 W/m 31,7 km/h (5 Bft)
11.08.2014 04:18 14,4 C 13,3 C 86 % 1008,4 hPa 0,0 l/m 0 min 0 min 0,0 UV-I 0 W/m 31,7 km/h (5 Bft)
11.08.2014 04:20 14,4 C 12,8 C 86 % 1008,4 hPa 0,0 l/m 0 min 0 min 0,0 UV-I 0 W/m 17,7 km/h (3 Bft)
11.08.2014 04:22 14,4 C 13,3 C 86 % 1008,4 hPa 0,0 l/m 0 min 0 min 0,0 UV-I 0 W/m 38,9 km/h (6 Bft)
11.08.2014 04:24 14,4 C 13,3 C 86 % 1008,5 hPa 0,0 l/m 0 min 0 min 0,0 UV-I 0 W/m 21,3 km/h (4 Bft)
11.08.2014 04:26 14,4 C 12,8 C 86 % 1008,5 hPa 0,0 l/m 0 min 0 min 0,0 UV-I 0 W/m 14,2 km/h (3 Bft)
11.08.2014 04:28 14,3 C 12,8 C 86 % 1008,5 hPa 0,0 l/m 0 min 0 min 0,0 UV-I 0 W/m 38,9 km/h (6 Bft)
11.08.2014 04:30 14,3 C 12,8 C 86 % 1008,5 hPa 0,0 l/m 0 min 0 min 0,0 UV-I 0 W/m 14,2 km/h (3 Bft)
11.08.2014 04:32 14,3 C 12,8 C 86 % 1008,5 hPa 0,0 l/m 0 min 0 min 0,0 UV-I 0 W/m 10,7 km/h (2 Bft)
11.08.2014 04:34 14,2 C 12,8 C 86 % 1008,6 hPa 0,0 l/m 0 min 0 min 0,0 UV-I 0 W/m 35,4 km/h (5 Bft)
11.08.2014 04:36 14,2 C 12,8 C 87 % 1008,6 hPa 0,0 l/m 0 min 0 min 0,0 UV-I 0 W/m 28,2 km/h (4 Bft)
11.08.2014 04:38 14,2 C 12,8 C 86 % 1008,7 hPa 0,0 l/m 0 min 0 min 0,0 UV-I 0 W/m 21,3 km/h (4 Bft)
11.08.2014 04:40 14,2 C 12,8 C 87 % 1008,7 hPa 0,0 l/m 0 min 0 min 0,0 UV-I 0 W/m 21,3 km/h (4 Bft)
11.08.2014 04:42 14,2 C 12,8 C 87 % 1008,7 hPa 0,0 l/m 0 min 0 min 0,0 UV-I 0 W/m 21,3 km/h (4 Bft)
11.08.2014 04:44 14,2 C 12,8 C 87 % 1008,7 hPa 0,0 l/m 0 min 0 min 0,0 UV-I 0 W/m 38,9 km/h (6 Bft)
11.08.2014 04:46 14,2 C 12,8 C 87 % 1008,7 hPa 0,0 l/m 0 min 0 min 0,0 UV-I 0 W/m 35,4 km/h (5 Bft)
11.08.2014 04:48 14,2 C 12,8 C 87 % 1008,7 hPa 0,0 l/m 0 min 0 min 0,0 UV-I 0 W/m 31,7 km/h (5 Bft)
11.08.2014 04:50 14,2 C 12,8 C 87 % 1008,7 hPa 0,0 l/m 0 min 0 min 0,0 UV-I 0 W/m 28,2 km/h (4 Bft)
11.08.2014 04:52 14,2 C 12,8 C 87 % 1008,7 hPa 0,0 l/m 0 min 0 min 0,0 UV-I 0 W/m 38,9 km/h (6 Bft)
11.08.2014 04:54 14,2 C 12,8 C 87 % 1008,8 hPa 0,0 l/m 0 min 0 min 0,0 UV-I 0 W/m 31,7 km/h (5 Bft)
11.08.2014 04:56 14,2 C 12,8 C 86 % 1008,8 hPa 0,0 l/m 0 min 0 min 0,0 UV-I 0 W/m 31,7 km/h (5 Bft)
11.08.2014 04:58 14,3 C 12,8 C 86 % 1008,8 hPa 0,0 l/m 0 min 0 min 0,0 UV-I 0 W/m 38,9 km/h (6 Bft)
11.08.2014 05:00 14,3 C 12,8 C 86 % 1008,8 hPa 0,0 l/m 0 min 0 min 0,0 UV-I 0 W/m 35,4 km/h (5 Bft)
11.08.2014 05:02 14,3 C 12,8 C 86 % 1008,9 hPa 0,0 l/m 0 min 0 min 0,0 UV-I 0 W/m 24,7 km/h (4 Bft)
11.08.2014 05:04 14,3 C 12,8 C 86 % 1008,9 hPa 0,0 l/m 0 min 0 min 0,0 UV-I 0 W/m 38,9 km/h (6 Bft)
11.08.2014 05:06 14,3 C 12,8 C 86 % 1008,9 hPa 0,0 l/m 0 min 0 min 0,0 UV-I 0 W/m 28,2 km/h (4 Bft)
11.08.2014 05:08 14,3 C 12,8 C 86 % 1008,9 hPa 0,0 l/m 0 min 0 min 0,0 UV-I 0 W/m 17,7 km/h (3 Bft)
11.08.2014 05:10 14,2 C 12,8 C 86 % 1009,0 hPa 0,0 l/m 0 min 0 min 0,0 UV-I 0 W/m 21,3 km/h (4 Bft)
11.08.2014 05:12 14,2 C 12,8 C 86 % 1009,0 hPa 0,0 l/m 0 min 0 min 0,0 UV-I 0 W/m 24,7 km/h (4 Bft)
11.08.2014 05:14 14,2 C 12,8 C 87 % 1008,9 hPa 0,0 l/m 0 min 0 min 0,0 UV-I 0 W/m 35,4 km/h (5 Bft)
11.08.2014 05:16 14,2 C 12,8 C 87 % 1009,0 hPa 0,0 l/m 0 min 0 min 0,0 UV-I 0 W/m 42,4 km/h (6 Bft)
11.08.2014 05:18 14,2 C 12,8 C 87 % 1009,1 hPa 0,0 l/m 0 min 0 min 0,0 UV-I 0 W/m 31,7 km/h (5 Bft)
11.08.2014 05:20 14,2 C 12,8 C 86 % 1009,0 hPa 0,0 l/m 0 min 0 min 0,0 UV-I 0 W/m 38,9 km/h (6 Bft)
11.08.2014 05:22 14,2 C 12,8 C 86 % 1009,0 hPa 0,0 l/m 0 min 0 min 0,0 UV-I 0 W/m 35,4 km/h (5 Bft)
11.08.2014 05:24 14,2 C 12,8 C 86 % 1009,1 hPa 0,0 l/m 0 min 0 min 0,0 UV-I 0 W/m 21,3 km/h (4 Bft)
11.08.2014 05:26 14,2 C 12,8 C 86 % 1009,1 hPa 0,0 l/m 0 min 0 min 0,0 UV-I 0 W/m 28,2 km/h (4 Bft)
11.08.2014 05:28 14,2 C 12,8 C 86 % 1009,1 hPa 0,0 l/m 0 min 0 min 0,0 UV-I 0 W/m 31,7 km/h (5 Bft)
11.08.2014 05:30 14,2 C 12,8 C 87 % 1009,1 hPa 0,0 l/m 0 min 0 min 0,0 UV-I 0 W/m 21,3 km/h (4 Bft)
11.08.2014 05:32 14,2 C 12,8 C 87 % 1009,1 hPa 0,0 l/m 0 min 0 min 0,0 UV-I 0 W/m 31,7 km/h (5 Bft)
11.08.2014 05:34 14,2 C 12,8 C 87 % 1009,1 hPa 0,0 l/m 0 min 0 min 0,0 UV-I 0 W/m 35,4 km/h (5 Bft)
11.08.2014 05:36 14,2 C 12,8 C 87 % 1009,1 hPa 0,0 l/m 0 min 0 min 0,0 UV-I 0 W/m 17,7 km/h (3 Bft)
11.08.2014 05:38 14,2 C 12,8 C 87 % 1009,2 hPa 0,0 l/m 0 min 0 min 0,0 UV-I 0 W/m 24,7 km/h (4 Bft)
11.08.2014 05:40 14,2 C 12,8 C 87 % 1009,2 hPa 0,0 l/m 0 min 0 min 0,0 UV-I 0 W/m 31,7 km/h (5 Bft)
11.08.2014 05:42 14,1 C 12,8 C 87 % 1009,2 hPa 0,0 l/m 0 min 0 min 0,0 UV-I 0 W/m 17,7 km/h (3 Bft)
11.08.2014 05:44 14,1 C 12,8 C 87 % 1009,2 hPa 0,0 l/m 0 min 0 min 0,0 UV-I 0 W/m 17,7 km/h (3 Bft)
11.08.2014 05:46 14,0 C 12,8 C 87 % 1009,1 hPa 0,0 l/m 0 min 0 min 0,0 UV-I 0 W/m 17,7 km/h (3 Bft)
11.08.2014 05:48 14,0 C 12,8 C 87 % 1009,2 hPa 0,0 l/m 0 min 0 min 0,0 UV-I 0 W/m 17,7 km/h (3 Bft)
11.08.2014 05:50 14,0 C 12,8 C 87 % 1009,2 hPa 0,0 l/m 0 min 0 min 0,0 UV-I 0 W/m 24,7 km/h (4 Bft)
11.08.2014 05:52 14,0 C 12,8 C 87 % 1009,2 hPa 0,0 l/m 0 min 0 min 0,0 UV-I 0 W/m 31,7 km/h (5 Bft)
11.08.2014 05:54 14,0 C 12,8 C 87 % 1009,3 hPa 0,0 l/m 0 min 0 min 0,0 UV-I 0 W/m 28,2 km/h (4 Bft)
11.08.2014 05:56 14,0 C 12,8 C 87 % 1009,3 hPa 0,0 l/m 0 min 0 min 0,0 UV-I 0 W/m 24,7 km/h (4 Bft)
11.08.2014 05:58 14,1 C 12,8 C 87 % 1009,3 hPa 0,0 l/m 0 min 0 min 0,0 UV-I 0 W/m 17,7 km/h (3 Bft)
11.08.2014 06:00 14,0 C 12,8 C 87 % 1009,2 hPa 0,0 l/m 0 min 0 min 0,0 UV-I 0 W/m 24,7 km/h (4 Bft)
11.08.2014 06:02 14,0 C 12,8 C 87 % 1009,3 hPa 0,0 l/m 0 min 0 min 0,0 UV-I 0 W/m 28,2 km/h (4 Bft)
11.08.2014 06:05 14,0 C 12,8 C 87 % 1009,3 hPa 0,0 l/m 0 min 0 min 0,0 UV-I 0 W/m 28,2 km/h (4 Bft)
11.08.2014 06:06 14,0 C 12,8 C 87 % 1009,3 hPa 0,0 l/m 0 min 0 min 0,0 UV-I 0 W/m 28,2 km/h (4 Bft)
11.08.2014 06:08 14,0 C 12,8 C 87 % 1009,3 hPa 0,0 l/m 0 min 0 min 0,0 UV-I 0 W/m 21,3 km/h (4 Bft)
11.08.2014 06:10 14,0 C 12,8 C 87 % 1009,4 hPa 0,0 l/m 0 min 0 min 0,0 UV-I 0 W/m 14,2 km/h (3 Bft)
11.08.2014 06:12 13,9 C 12,8 C 87 % 1009,4 hPa 0,0 l/m 0 min 0 min 0,0 UV-I 0 W/m 21,3 km/h (4 Bft)
11.08.2014 06:14 13,9 C 12,8 C 87 % 1009,4 hPa 0,0 l/m 0 min 0 min 0,0 UV-I 0 W/m 17,7 km/h (3 Bft)
11.08.2014 06:16 13,9 C 12,8 C 88 % 1009,5 hPa 0,0 l/m 0 min 0 min 0,0 UV-I 0 W/m 24,7 km/h (4 Bft)
11.08.2014 06:18 13,9 C 12,8 C 88 % 1009,4 hPa 0,0 l/m 0 min 0 min 0,0 UV-I 0 W/m 24,7 km/h (4 Bft)
11.08.2014 06:20 13,9 C 12,8 C 88 % 1009,4 hPa 0,0 l/m 0 min 0 min 0,0 UV-I 8 W/m 24,7 km/h (4 Bft)
11.08.2014 06:22 13,9 C 12,8 C 88 % 1009,4 hPa 0,0 l/m 0 min 0 min 0,0 UV-I 9 W/m 28,2 km/h (4 Bft)
11.08.2014 06:24 13,8 C 12,8 C 88 % 1009,5 hPa 0,0 l/m 0 min 0 min 0,0 UV-I 11 W/m 28,2 km/h (4 Bft)
11.08.2014 06:26 13,8 C 12,8 C 88 % 1009,5 hPa 0,0 l/m 0 min 0 min 0,0 UV-I 12 W/m 28,2 km/h (4 Bft)
11.08.2014 06:28 13,8 C 12,8 C 88 % 1009,5 hPa 0,0 l/m 2 min 0 min 0,0 UV-I 14 W/m 28,2 km/h (4 Bft)
11.08.2014 06:30 13,9 C 12,8 C 88 % 1009,5 hPa 0,0 l/m 2 min 0 min 0,0 UV-I 15 W/m 31,7 km/h (5 Bft)
11.08.2014 06:32 13,8 C 12,8 C 88 % 1009,6 hPa 0,0 l/m 2 min 0 min 0,0 UV-I 16 W/m 35,4 km/h (5 Bft)
11.08.2014 06:34 13,8 C 12,8 C 88 % 1009,6 hPa 0,0 l/m 2 min 0 min 0,0 UV-I 18 W/m 31,7 km/h (5 Bft)
11.08.2014 06:36 13,8 C 12,8 C 88 % 1009,5 hPa 0,0 l/m 0 min 0 min 0,0 UV-I 19 W/m 31,7 km/h (5 Bft)
11.08.2014 06:38 13,8 C 12,8 C 88 % 1009,5 hPa 0,0 l/m 0 min 0 min 0,0 UV-I 21 W/m 28,2 km/h (4 Bft)
11.08.2014 06:40 13,8 C 12,8 C 88 % 1009,6 hPa 0,0 l/m 0 min 0 min 0,0 UV-I 23 W/m 35,4 km/h (5 Bft)
11.08.2014 06:42 13,9 C 12,8 C 88 % 1009,5 hPa 0,0 l/m 0 min 0 min 0,0 UV-I 24 W/m 35,4 km/h (5 Bft)
11.08.2014 06:44 13,9 C 12,8 C 88 % 1009,6 hPa 0,0 l/m 0 min 0 min 0,0 UV-I 25 W/m 35,4 km/h (5 Bft)
11.08.2014 06:46 13,9 C 12,8 C 88 % 1009,6 hPa 0,0 l/m 0 min 0 min 0,0 UV-I 27 W/m 28,2 km/h (4 Bft)
11.08.2014 06:48 13,9 C 12,8 C 88 % 1009,7 hPa 0,0 l/m 0 min 0 min 0,0 UV-I 30 W/m 35,4 km/h (5 Bft)
11.08.2014 06:50 13,9 C 12,8 C 88 % 1009,7 hPa 0,0 l/m 2 min 0 min 0,0 UV-I 45 W/m 42,4 km/h (6 Bft)
11.08.2014 06:52 13,9 C 12,8 C 87 % 1009,7 hPa 0,0 l/m 2 min 0 min 0,0 UV-I 51 W/m 24,7 km/h (4 Bft)
11.08.2014 06:54 14,0 C 12,8 C 87 % 1009,7 hPa 0,0 l/m 2 min 0 min 0,0 UV-I 56 W/m 35,4 km/h (5 Bft)
11.08.2014 06:56 13,9 C 12,8 C 87 % 1009,8 hPa 0,0 l/m 2 min 0 min 0,0 UV-I 61 W/m 24,7 km/h (4 Bft)
11.08.2014 06:58 13,9 C 12,8 C 88 % 1009,8 hPa 0,0 l/m 2 min 0 min 0,0 UV-I 67 W/m 21,3 km/h (4 Bft)
11.08.2014 07:00 13,9 C 12,8 C 88 % 1009,8 hPa 0,0 l/m 2 min 0 min 0,0 UV-I 72 W/m 21,3 km/h (4 Bft)
11.08.2014 07:02 13,9 C 12,8 C 88 % 1009,8 hPa 0,0 l/m 2 min 0 min 0,0 UV-I 76 W/m 24,7 km/h (4 Bft)
11.08.2014 07:04 13,9 C 12,8 C 88 % 1009,8 hPa 0,0 l/m 2 min 0 min 0,0 UV-I 79 W/m 28,2 km/h (4 Bft)
11.08.2014 07:06 13,9 C 12,8 C 88 % 1009,9 hPa 0,0 l/m 2 min 0 min 0,0 UV-I 83 W/m 35,4 km/h (5 Bft)
11.08.2014 07:08 14,0 C 12,8 C 88 % 1009,8 hPa 0,0 l/m 2 min 0 min 0,0 UV-I 87 W/m 35,4 km/h (5 Bft)
11.08.2014 07:10 14,1 C 12,8 C 87 % 1009,9 hPa 0,0 l/m 2 min 0 min 0,0 UV-I 92 W/m 31,7 km/h (5 Bft)
11.08.2014 07:12 14,1 C 12,8 C 87 % 1009,9 hPa 0,0 l/m 2 min 0 min 0,0 UV-I 97 W/m 38,9 km/h (6 Bft)
11.08.2014 07:14 14,1 C 12,8 C 87 % 1009,9 hPa 0,0 l/m 2 min 0 min 0,0 UV-I 102 W/m 38,9 km/h (6 Bft)
11.08.2014 07:16 14,1 C 12,8 C 87 % 1010,0 hPa 0,0 l/m 2 min 0 min 0,0 UV-I 110 W/m 35,4 km/h (5 Bft)
11.08.2014 07:18 14,2 C 12,8 C 87 % 1009,9 hPa 0,0 l/m 2 min 0 min 0,0 UV-I 114 W/m 31,7 km/h (5 Bft)
11.08.2014 07:20 14,2 C 12,8 C 87 % 1009,9 hPa 0,0 l/m 2 min 0 min 0,0 UV-I 119 W/m 35,4 km/h (5 Bft)
11.08.2014 07:22 14,2 C 12,8 C 87 % 1009,9 hPa 0,0 l/m 2 min 0 min 0,0 UV-I 121 W/m 35,4 km/h (5 Bft)
11.08.2014 07:24 14,2 C 12,8 C 87 % 1010,0 hPa 0,0 l/m 2 min 0 min 0,0 UV-I 126 W/m 31,7 km/h (5 Bft)
11.08.2014 07:26 14,2 C 12,8 C 87 % 1010,0 hPa 0,0 l/m 2 min 0 min 0,0 UV-I 134 W/m 35,4 km/h (5 Bft)
11.08.2014 07:28 14,2 C 12,8 C 87 % 1010,0 hPa 0,0 l/m 2 min 0 min 0,0 UV-I 141 W/m 24,7 km/h (4 Bft)
11.08.2014 07:30 14,2 C 13,3 C 87 % 1010,0 hPa 0,0 l/m 2 min 0 min 0,0 UV-I 147 W/m 49,5 km/h (6 Bft)
11.08.2014 07:32 14,2 C 13,3 C 87 % 1010,0 hPa 0,0 l/m 2 min 0 min 0,0 UV-I 152 W/m 24,7 km/h (4 Bft)
11.08.2014 07:34 14,2 C 13,3 C 87 % 1010,1 hPa 0,0 l/m 2 min 0 min 0,0 UV-I 158 W/m 35,4 km/h (5 Bft)
11.08.2014 07:36 14,3 C 13,3 C 87 % 1010,1 hPa 0,0 l/m 2 min 0 min 0,0 UV-I 163 W/m 31,7 km/h (5 Bft)
11.08.2014 07:38 14,3 C 13,3 C 87 % 1010,1 hPa 0,0 l/m 2 min 0 min 0,0 UV-I 170 W/m 28,2 km/h (4 Bft)
11.08.2014 07:40 14,3 C 13,3 C 86 % 1010,0 hPa 0,0 l/m 2 min 0 min 0,0 UV-I 175 W/m 46,0 km/h (6 Bft)
11.08.2014 07:42 14,4 C 13,3 C 86 % 1010,0 hPa 0,0 l/m 2 min 0 min 0,0 UV-I 184 W/m 28,2 km/h (4 Bft)
11.08.2014 07:44 14,4 C 13,3 C 87 % 1010,0 hPa 0,0 l/m 2 min 0 min 0,0 UV-I 191 W/m 28,2 km/h (4 Bft)
11.08.2014 07:46 14,4 C 13,3 C 86 % 1010,1 hPa 0,0 l/m 2 min 0 min 0,0 UV-I 193 W/m 38,9 km/h (6 Bft)
11.08.2014 07:48 14,5 C 13,3 C 86 % 1010,2 hPa 0,0 l/m 2 min 0 min 0,0 UV-I 198 W/m 24,7 km/h (4 Bft)
11.08.2014 07:50 14,5 C 13,3 C 86 % 1010,2 hPa 0,0 l/m 2 min 0 min 0,0 UV-I 203 W/m 31,7 km/h (5 Bft)
11.08.2014 07:52 14,6 C 13,3 C 86 % 1010,2 hPa 0,0 l/m 2 min 0 min 0,0 UV-I 209 W/m 35,4 km/h (5 Bft)
11.08.2014 07:54 14,6 C 13,3 C 86 % 1010,2 hPa 0,0 l/m 2 min 0 min 0,0 UV-I 215 W/m 42,4 km/h (6 Bft)
11.08.2014 07:56 14,6 C 13,3 C 86 % 1010,2 hPa 0,0 l/m 2 min 0 min 0,0 UV-I 218 W/m 42,4 km/h (6 Bft)
11.08.2014 07:58 14,7 C 13,3 C 86 % 1010,3 hPa 0,0 l/m 2 min 0 min 0,0 UV-I 224 W/m 24,7 km/h (4 Bft)
11.08.2014 08:00 14,7 C 13,3 C 86 % 1010,2 hPa 0,0 l/m 2 min 0 min 0,0 UV-I 229 W/m 38,9 km/h (6 Bft)
11.08.2014 08:02 14,7 C 13,3 C 86 % 1010,2 hPa 0,0 l/m 2 min 0 min 0,0 UV-I 232 W/m 42,4 km/h (6 Bft)
11.08.2014 08:04 14,7 C 13,3 C 86 % 1010,3 hPa 0,0 l/m 2 min 0 min 0,0 UV-I 236 W/m 35,4 km/h (5 Bft)
11.08.2014 08:06 14,8 C 13,9 C 86 % 1010,3 hPa 0,0 l/m 2 min 0 min 0,0 UV-I 238 W/m 31,7 km/h (5 Bft)
11.08.2014 08:08 14,8 C 13,9 C 86 % 1010,4 hPa 0,0 l/m 2 min 0 min 0,0 UV-I 244 W/m 21,3 km/h (4 Bft)
11.08.2014 08:10 14,9 C 13,9 C 86 % 1010,4 hPa 0,0 l/m 2 min 0 min 0,0 UV-I 247 W/m 24,7 km/h (4 Bft)
11.08.2014 08:12 14,9 C 13,9 C 86 % 1010,4 hPa 0,0 l/m 2 min 0 min 0,0 UV-I 250 W/m 31,7 km/h (5 Bft)
11.08.2014 08:14 14,9 C 13,9 C 86 % 1010,4 hPa 0,0 l/m 2 min 0 min 0,0 UV-I 259 W/m 49,5 km/h (6 Bft)
11.08.2014 08:16 15,0 C 13,9 C 86 % 1010,4 hPa 0,0 l/m 2 min 0 min 0,0 UV-I 263 W/m 31,7 km/h (5 Bft)
11.08.2014 08:18 15,1 C 13,9 C 85 % 1010,4 hPa 0,0 l/m 2 min 0 min 0,0 UV-I 268 W/m 35,4 km/h (5 Bft)
11.08.2014 08:20 15,1 C 13,9 C 85 % 1010,4 hPa 0,0 l/m 2 min 0 min 0,0 UV-I 276 W/m 28,2 km/h (4 Bft)
11.08.2014 08:22 15,1 C 13,9 C 85 % 1010,5 hPa 0,0 l/m 2 min 0 min 0,0 UV-I 284 W/m 31,7 km/h (5 Bft)
11.08.2014 08:24 15,2 C 13,9 C 85 % 1010,5 hPa 0,0 l/m 2 min 0 min 0,0 UV-I 289 W/m 31,7 km/h (5 Bft)
11.08.2014 08:26 15,2 C 13,9 C 85 % 1010,6 hPa 0,0 l/m 2 min 0 min 0,0 UV-I 285 W/m 35,4 km/h (5 Bft)
11.08.2014 08:28 15,3 C 13,9 C 85 % 1010,5 hPa 0,0 l/m 2 min 0 min 0,0 UV-I 291 W/m 28,2 km/h (4 Bft)
11.08.2014 08:30 15,3 C 13,9 C 85 % 1010,6 hPa 0,0 l/m 2 min 0 min 0,0 UV-I 298 W/m 28,2 km/h (4 Bft)
11.08.2014 08:32 15,4 C 13,9 C 85 % 1010,6 hPa 0,0 l/m 2 min 0 min 0,0 UV-I 304 W/m 17,7 km/h (3 Bft)
11.08.2014 08:34 15,4 C 13,9 C 85 % 1010,6 hPa 0,0 l/m 2 min 0 min 0,0 UV-I 311 W/m 42,4 km/h (6 Bft)
11.08.2014 08:36 15,4 C 13,9 C 85 % 1010,7 hPa 0,0 l/m 2 min 0 min 0,0 UV-I 314 W/m 31,7 km/h (5 Bft)
11.08.2014 08:38 15,5 C 13,9 C 84 % 1010,7 hPa 0,0 l/m 2 min 0 min 0,0 UV-I 322 W/m 42,4 km/h (6 Bft)
11.08.2014 08:40 15,6 C 13,9 C 84 % 1010,7 hPa 0,0 l/m 2 min 0 min 0,0 UV-I 330 W/m 38,9 km/h (6 Bft)
11.08.2014 08:42 15,6 C 14,4 C 84 % 1010,7 hPa 0,0 l/m 2 min 0 min 0,0 UV-I 332 W/m 28,2 km/h (4 Bft)
11.08.2014 08:44 15,7 C 14,4 C 84 % 1010,7 hPa 0,0 l/m 2 min 0 min 0,0 UV-I 339 W/m 35,4 km/h (5 Bft)
11.08.2014 08:46 15,7 C 14,4 C 84 % 1010,7 hPa 0,0 l/m 2 min 0 min 0,0 UV-I 341 W/m 38,9 km/h (6 Bft)
11.08.2014 08:48 15,7 C 14,4 C 84 % 1010,8 hPa 0,0 l/m 2 min 0 min 0,0 UV-I 347 W/m 38,9 km/h (6 Bft)
11.08.2014 08:50 15,8 C 14,4 C 84 % 1010,8 hPa 0,0 l/m 2 min 0 min 0,0 UV-I 350 W/m 38,9 km/h (6 Bft)
11.08.2014 08:52 15,8 C 14,4 C 83 % 1010,7 hPa 0,0 l/m 2 min 0 min 0,0 UV-I 361 W/m 42,4 km/h (6 Bft)
11.08.2014 08:54 15,9 C 14,4 C 83 % 1010,7 hPa 0,0 l/m 2 min 0 min 0,0 UV-I 368 W/m 38,9 km/h (6 Bft)
11.08.2014 08:56 15,9 C 14,4 C 84 % 1010,8 hPa 0,0 l/m 2 min 0 min 0,0 UV-I 372 W/m 31,7 km/h (5 Bft)
11.08.2014 08:58 16,0 C 14,4 C 84 % 1010,8 hPa 0,0 l/m 2 min 0 min 0,2 UV-I 378 W/m 28,2 km/h (4 Bft)
11.08.2014 09:00 16,1 C 14,4 C 83 % 1010,7 hPa 0,0 l/m 2 min 0 min 0,4 UV-I 380 W/m 35,4 km/h (5 Bft)
11.08.2014 09:02 16,1 C 14,4 C 83 % 1010,8 hPa 0,0 l/m 2 min 0 min 0,5 UV-I 380 W/m 42,4 km/h (6 Bft)
11.08.2014 09:04 16,1 C 14,4 C 82 % 1010,7 hPa 0,0 l/m 2 min 0 min 0,5 UV-I 388 W/m 53,0 km/h (7 Bft)
11.08.2014 09:06 16,2 C 14,4 C 82 % 1010,8 hPa 0,0 l/m 2 min 0 min 0,5 UV-I 402 W/m 49,5 km/h (6 Bft)
11.08.2014 09:08 16,3 C 15,0 C 82 % 1010,9 hPa 0,0 l/m 2 min 0 min 0,6 UV-I 432 W/m 28,2 km/h (4 Bft)
11.08.2014 09:10 16,3 C 15,0 C 82 % 1010,8 hPa 0,0 l/m 2 min 0 min 0,4 UV-I 417 W/m 38,9 km/h (6 Bft)
11.08.2014 09:12 16,4 C 15,0 C 82 % 1010,9 hPa 0,0 l/m 2 min 0 min 0,6 UV-I 410 W/m 31,7 km/h (5 Bft)
11.08.2014 09:14 16,4 C 15,0 C 81 % 1010,9 hPa 0,0 l/m 2 min 0 min 0,7 UV-I 415 W/m 49,5 km/h (6 Bft)
11.08.2014 09:16 16,5 C 15,0 C 81 % 1010,9 hPa 0,0 l/m 2 min 0 min 0,7 UV-I 428 W/m 49,5 km/h (6 Bft)
11.08.2014 09:18 16,5 C 15,0 C 81 % 1010,8 hPa 0,0 l/m 2 min 0 min 0,4 UV-I 239 W/m 49,5 km/h (6 Bft)
11.08.2014 09:20 16,5 C 15,0 C 81 % 1010,8 hPa 0,0 l/m 2 min 0 min 0,8 UV-I 320 W/m 42,4 km/h (6 Bft)
11.08.2014 09:22 16,6 C 15,0 C 81 % 1010,9 hPa 0,0 l/m 2 min 0 min 0,8 UV-I 420 W/m 24,7 km/h (4 Bft)
11.08.2014 09:24 16,7 C 15,0 C 82 % 1010,9 hPa 0,0 l/m 2 min 0 min 0,9 UV-I 429 W/m 24,7 km/h (4 Bft)
11.08.2014 09:26 16,7 C 15,0 C 81 % 1010,9 hPa 0,0 l/m 2 min 0 min 0,9 UV-I 439 W/m 38,9 km/h (6 Bft)
11.08.2014 09:28 16,8 C 15,0 C 81 % 1010,9 hPa 0,0 l/m 2 min 0 min 0,9 UV-I 442 W/m 35,4 km/h (5 Bft)
11.08.2014 09:30 16,9 C 15,0 C 81 % 1010,9 hPa 0,0 l/m 2 min 0 min 1,0 UV-I 447 W/m 31,7 km/h (5 Bft)
11.08.2014 09:32 17,0 C 15,6 C 81 % 1010,9 hPa 0,0 l/m 2 min 0 min 0,8 UV-I 381 W/m 42,4 km/h (6 Bft)
11.08.2014 09:34 17,0 C 15,6 C 80 % 1010,9 hPa 0,0 l/m 2 min 0 min 0,9 UV-I 409 W/m 49,5 km/h (6 Bft)
11.08.2014 09:36 17,0 C 15,6 C 80 % 1011,0 hPa 0,0 l/m 2 min 0 min 1,0 UV-I 472 W/m 53,0 km/h (7 Bft)
11.08.2014 09:38 17,0 C 15,6 C 80 % 1010,9 hPa 0,0 l/m 2 min 0 min 0,7 UV-I 415 W/m 38,9 km/h (6 Bft)
11.08.2014 09:40 17,1 C 15,6 C 80 % 1010,9 hPa 0,0 l/m 2 min 0 min 1,1 UV-I 475 W/m 31,7 km/h (5 Bft)
11.08.2014 09:42 17,2 C 16,1 C 80 % 1010,9 hPa 0,0 l/m 2 min 0 min 1,2 UV-I 501 W/m 67,1 km/h (8 Bft)
11.08.2014 09:44 17,2 C 16,7 C 80 % 1010,9 hPa 0,0 l/m 2 min 0 min 1,2 UV-I 559 W/m 67,1 km/h (8 Bft)
11.08.2014 09:46 17,4 C 16,7 C 80 % 1010,9 hPa 0,0 l/m 2 min 0 min 0,9 UV-I 531 W/m 38,9 km/h (6 Bft)
11.08.2014 09:48 17,5 C 17,2 C 79 % 1010,9 hPa 0,0 l/m 0 min 0 min 1,2 UV-I 241 W/m 35,4 km/h (5 Bft)
11.08.2014 09:50 17,6 C 17,8 C 79 % 1011,0 hPa 0,0 l/m 2 min 0 min 1,2 UV-I 360 W/m 38,9 km/h (6 Bft)
11.08.2014 09:52 17,6 C 18,9 C 78 % 1011,0 hPa 0,0 l/m 2 min 0 min 1,3 UV-I 571 W/m 56,5 km/h (7 Bft)
11.08.2014 09:54 17,5 C 17,8 C 78 % 1011,0 hPa 0,0 l/m 2 min 0 min 0,8 UV-I 308 W/m 53,0 km/h (7 Bft)
11.08.2014 09:56 17,4 C 17,8 C 78 % 1011,0 hPa 0,0 l/m 0 min 0 min 1,0 UV-I 127 W/m 38,9 km/h (6 Bft)
11.08.2014 09:58 17,4 C 18,3 C 79 % 1011,0 hPa 0,0 l/m 0 min 0 min 1,0 UV-I 158 W/m 42,4 km/h (6 Bft)
11.08.2014 10:00 17,4 C 19,4 C 78 % 1011,0 hPa 0,0 l/m 2 min 0 min 1,5 UV-I 529 W/m 53,0 km/h (7 Bft)
11.08.2014 10:02 17,5 C 20,0 C 78 % 1011,0 hPa 0,0 l/m 2 min 0 min 1,6 UV-I 539 W/m 56,5 km/h (7 Bft)
11.08.2014 10:04 17,6 C 19,4 C 78 % 1011,0 hPa 0,0 l/m 2 min 0 min 1,3 UV-I 548 W/m 35,4 km/h (5 Bft)
11.08.2014 10:06 17,6 C 18,9 C 78 % 1011,0 hPa 0,0 l/m 2 min 0 min 1,4 UV-I 563 W/m 56,5 km/h (7 Bft)
11.08.2014 10:08 17,6 C 18,3 C 77 % 1011,1 hPa 0,0 l/m 0 min 0 min 1,0 UV-I 201 W/m 46,0 km/h (6 Bft)
11.08.2014 10:10 17,5 C 18,3 C 77 % 1011,1 hPa 0,0 l/m 0 min 0 min 1,1 UV-I 171 W/m 42,4 km/h (6 Bft)
11.08.2014 10:12 17,6 C 18,9 C 77 % 1011,2 hPa 0,0 l/m 2 min 0 min 1,8 UV-I 492 W/m 38,9 km/h (6 Bft)
11.08.2014 10:14 17,8 C 20,0 C 77 % 1011,1 hPa 0,0 l/m 2 min 0 min 1,8 UV-I 647 W/m 46,0 km/h (6 Bft)
11.08.2014 10:16 17,9 C 19,4 C 76 % 1011,1 hPa 0,0 l/m 2 min 0 min 1,3 UV-I 624 W/m 42,4 km/h (6 Bft)
11.08.2014 10:18 17,9 C 19,4 C 76 % 1011,2 hPa 0,0 l/m 2 min 0 min 1,7 UV-I 645 W/m 49,5 km/h (6 Bft)
11.08.2014 10:20 17,9 C 18,3 C 76 % 1011,2 hPa 0,0 l/m 2 min 0 min 1,0 UV-I 457 W/m 42,4 km/h (6 Bft)
11.08.2014 10:22 17,8 C 18,9 C 77 % 1011,2 hPa 0,0 l/m 0 min 0 min 1,5 UV-I 217 W/m 38,9 km/h (6 Bft)
11.08.2014 10:24 17,8 C 18,9 C 77 % 1011,2 hPa 0,0 l/m 2 min 0 min 1,4 UV-I 649 W/m 24,7 km/h (4 Bft)
11.08.2014 10:26 18,0 C 19,4 C 77 % 1011,2 hPa 0,0 l/m 2 min 0 min 2,1 UV-I 655 W/m 49,5 km/h (6 Bft)
11.08.2014 10:28 18,2 C 20,0 C 77 % 1011,3 hPa 0,0 l/m 2 min 0 min 2,1 UV-I 666 W/m 42,4 km/h (6 Bft)
11.08.2014 10:30 18,3 C 19,4 C 76 % 1011,3 hPa 0,0 l/m 2 min 0 min 1,5 UV-I 520 W/m 46,0 km/h (6 Bft)
11.08.2014 10:32 18,2 C 19,4 C 74 % 1011,3 hPa 0,0 l/m 0 min 0 min 1,6 UV-I 171 W/m 53,0 km/h (7 Bft)
11.08.2014 10:34 18,2 C 19,4 C 73 % 1011,3 hPa 0,0 l/m 2 min 0 min 2,1 UV-I 454 W/m 46,0 km/h (6 Bft)
11.08.2014 10:36 18,2 C 18,3 C 73 % 1011,3 hPa 0,0 l/m 0 min 0 min 1,2 UV-I 296 W/m 42,4 km/h (6 Bft)
11.08.2014 10:38 18,1 C 17,8 C 74 % 1011,3 hPa 0,0 l/m 0 min 0 min 2,1 UV-I 173 W/m 56,5 km/h (7 Bft)
11.08.2014 10:40 18,2 C 18,3 C 75 % 1011,4 hPa 0,0 l/m 2 min 0 min 2,3 UV-I 663 W/m 49,5 km/h (6 Bft)
11.08.2014 10:42 18,3 C 18,9 C 73 % 1011,4 hPa 0,0 l/m 2 min 0 min 2,4 UV-I 679 W/m 49,5 km/h (6 Bft)
11.08.2014 10:44 18,3 C 17,8 C 72 % 1011,4 hPa 0,0 l/m 2 min 0 min 2,2 UV-I 466 W/m 49,5 km/h (6 Bft)
11.08.2014 10:46 18,3 C 17,8 C 74 % 1011,4 hPa 0,0 l/m 0 min 0 min 1,5 UV-I 208 W/m 38,9 km/h (6 Bft)
11.08.2014 10:48 18,4 C 18,3 C 73 % 1011,4 hPa 0,0 l/m 2 min 0 min 2,4 UV-I 482 W/m 53,0 km/h (7 Bft)
11.08.2014 10:50 18,5 C 18,3 C 73 % 1011,4 hPa 0,0 l/m 2 min 0 min 2,6 UV-I 755 W/m 46,0 km/h (6 Bft)
11.08.2014 10:52 18,6 C 18,3 C 72 % 1011,4 hPa 0,0 l/m 2 min 0 min 1,8 UV-I 642 W/m 38,9 km/h (6 Bft)
11.08.2014 10:54 18,6 C 17,8 C 71 % 1011,4 hPa 0,0 l/m 0 min 0 min 1,2 UV-I 164 W/m 46,0 km/h (6 Bft)
11.08.2014 10:56 18,3 C 17,8 C 72 % 1011,4 hPa 0,0 l/m 0 min 0 min 1,8 UV-I 198 W/m 42,4 km/h (6 Bft)
11.08.2014 10:58 18,3 C 17,8 C 73 % 1011,4 hPa 0,0 l/m 0 min 0 min 1,7 UV-I 225 W/m 46,0 km/h (6 Bft)
11.08.2014 11:00 18,3 C 17,8 C 73 % 1011,4 hPa 0,0 l/m 0 min 0 min 1,9 UV-I 225 W/m 49,5 km/h (6 Bft)
11.08.2014 11:02 18,2 C 17,2 C 73 % 1011,5 hPa 0,0 l/m 0 min 0 min 1,1 UV-I 194 W/m 49,5 km/h (6 Bft)
11.08.2014 11:04 18,2 C 17,8 C 73 % 1011,5 hPa 0,0 l/m 0 min 0 min 2,1 UV-I 260 W/m 38,9 km/h (6 Bft)
11.08.2014 11:06 18,4 C 18,9 C 74 % 1011,4 hPa 0,0 l/m 2 min 0 min 2,9 UV-I 713 W/m 49,5 km/h (6 Bft)
11.08.2014 11:08 18,7 C 19,4 C 73 % 1011,5 hPa 0,0 l/m 2 min 0 min 2,9 UV-I 742 W/m 49,5 km/h (6 Bft)
11.08.2014 11:10 18,8 C 20,0 C 73 % 1011,5 hPa 0,0 l/m 2 min 0 min 3,0 UV-I 760 W/m 31,7 km/h (5 Bft)
11.08.2014 11:12 19,1 C 19,4 C 73 % 1011,4 hPa 0,0 l/m 2 min 0 min 3,0 UV-I 761 W/m 49,5 km/h (6 Bft)
11.08.2014 11:14 19,1 C 19,4 C 71 % 1011,5 hPa 0,0 l/m 2 min 0 min 3,1 UV-I 771 W/m 56,5 km/h (7 Bft)
11.08.2014 11:16 19,3 C 18,9 C 72 % 1011,6 hPa 0,0 l/m 2 min 0 min 3,1 UV-I 738 W/m 49,5 km/h (6 Bft)
11.08.2014 11:18 19,3 C 18,9 C 71 % 1011,6 hPa 0,0 l/m 2 min 0 min 3,1 UV-I 747 W/m 63,7 km/h (8 Bft)
11.08.2014 11:20 19,3 C 18,9 C 72 % 1011,7 hPa 0,0 l/m 2 min 0 min 3,2 UV-I 845 W/m 56,5 km/h (7 Bft)
11.08.2014 11:22 19,4 C 18,9 C 70 % 1011,7 hPa 0,0 l/m 2 min 0 min 2,6 UV-I 875 W/m 56,5 km/h (7 Bft)
11.08.2014 11:24 19,4 C 18,9 C 69 % 1011,6 hPa 0,0 l/m 2 min 0 min 2,5 UV-I 812 W/m 46,0 km/h (6 Bft)
11.08.2014 11:26 19,4 C 18,9 C 71 % 1011,6 hPa 0,0 l/m 2 min 0 min 3,2 UV-I 812 W/m 49,5 km/h (6 Bft)
11.08.2014 11:28 19,6 C 19,4 C 71 % 1011,6 hPa 0,0 l/m 2 min 0 min 3,3 UV-I 789 W/m 53,0 km/h (7 Bft)
11.08.2014 11:30 19,7 C 19,4 C 70 % 1011,7 hPa 0,0 l/m 2 min 0 min 3,4 UV-I 790 W/m 60,2 km/h (7 Bft)
11.08.2014 11:32 19,7 C 19,4 C 70 % 1011,7 hPa 0,0 l/m 2 min 0 min 3,4 UV-I 814 W/m 35,4 km/h (5 Bft)
11.08.2014 11:34 19,9 C 20,0 C 71 % 1011,7 hPa 0,0 l/m 2 min 0 min 3,1 UV-I 837 W/m 60,2 km/h (7 Bft)
11.08.2014 11:36 19,9 C 20,0 C 69 % 1011,7 hPa 0,0 l/m 2 min 0 min 2,8 UV-I 856 W/m 49,5 km/h (6 Bft)
11.08.2014 11:38 19,8 C 20,0 C 68 % 1011,8 hPa 0,0 l/m 2 min 0 min 3,3 UV-I 847 W/m 67,1 km/h (8 Bft)
11.08.2014 11:40 19,7 C 19,4 C 68 % 1011,6 hPa 0,0 l/m 2 min 0 min 3,6 UV-I 822 W/m 60,2 km/h (7 Bft)
11.08.2014 11:42 19,8 C 20,6 C 70 % 1011,7 hPa 0,0 l/m 2 min 0 min 3,7 UV-I 841 W/m 31,7 km/h (5 Bft)
11.08.2014 11:44 20,2 C 21,1 C 70 % 1011,8 hPa 0,0 l/m 2 min 0 min 3,7 UV-I 857 W/m 60,2 km/h (7 Bft)
11.08.2014 11:46 20,2 C 21,1 C 69 % 1011,8 hPa 0,0 l/m 2 min 0 min 3,5 UV-I 850 W/m 46,0 km/h (6 Bft)
11.08.2014 11:48 20,3 C 21,1 C 67 % 1011,7 hPa 0,0 l/m 2 min 0 min 3,6 UV-I 829 W/m 49,5 km/h (6 Bft)
11.08.2014 11:50 20,3 C 20,6 C 66 % 1011,8 hPa 0,0 l/m 2 min 0 min 2,9 UV-I 828 W/m 46,0 km/h (6 Bft)
11.08.2014 11:52 20,3 C 20,0 C 67 % 1011,8 hPa 0,0 l/m 2 min 0 min 3,2 UV-I 828 W/m 56,5 km/h (7 Bft)
11.08.2014 11:54 20,1 C 19,4 C 67 % 1011,8 hPa 0,0 l/m 0 min 0 min 1,2 UV-I 227 W/m 42,4 km/h (6 Bft)
11.08.2014 11:56 19,7 C 18,3 C 65 % 1011,9 hPa 0,0 l/m 0 min 0 min 1,1 UV-I 134 W/m 56,5 km/h (7 Bft)
11.08.2014 11:58 19,3 C 18,3 C 68 % 1011,8 hPa 0,0 l/m 0 min 0 min 2,3 UV-I 179 W/m 49,5 km/h (6 Bft)
11.08.2014 12:00 19,3 C 18,9 C 69 % 1011,8 hPa 0,0 l/m 2 min 0 min 3,7 UV-I 706 W/m 49,5 km/h (6 Bft)
11.08.2014 12:02 19,4 C 18,9 C 68 % 1011,8 hPa 0,0 l/m 2 min 0 min 2,1 UV-I 782 W/m 56,5 km/h (7 Bft)
11.08.2014 12:05 19,0 C 17,8 C 68 % 1011,8 hPa 0,0 l/m 0 min 0 min 1,6 UV-I 324 W/m 56,5 km/h (7 Bft)
11.08.2014 12:06 18,9 C 17,8 C 69 % 1011,8 hPa 0,0 l/m 0 min 0 min 3,5 UV-I 153 W/m 46,0 km/h (6 Bft)
11.08.2014 12:08 18,8 C 18,3 C 69 % 1011,9 hPa 0,0 l/m 0 min 0 min 3,9 UV-I 364 W/m 49,5 km/h (6 Bft)
11.08.2014 12:10 19,1 C 18,9 C 70 % 1011,8 hPa 0,0 l/m 2 min 0 min 4,0 UV-I 374 W/m 46,0 km/h (6 Bft)
11.08.2014 12:12 19,3 C 19,4 C 71 % 1011,8 hPa 0,0 l/m 0 min 0 min 4,0 UV-I 213 W/m 49,5 km/h (6 Bft)
11.08.2014 12:14 19,7 C 20,0 C 68 % 1011,8 hPa 0,0 l/m 0 min 0 min 4,0 UV-I 205 W/m 56,5 km/h (7 Bft)
11.08.2014 12:16 19,8 C 20,6 C 67 % 1011,8 hPa 0,0 l/m 0 min 0 min 4,0 UV-I 312 W/m 67,1 km/h (8 Bft)
11.08.2014 12:18 19,9 C 20,6 C 65 % 1011,8 hPa 0,0 l/m 2 min 0 min 4,0 UV-I 390 W/m 60,2 km/h (7 Bft)
11.08.2014 12:20 20,1 C 20,6 C 67 % 1011,8 hPa 0,0 l/m 0 min 0 min 4,1 UV-I 280 W/m 42,4 km/h (6 Bft)
11.08.2014 12:22 20,2 C 20,0 C 64 % 1011,8 hPa 0,0 l/m 0 min 0 min 4,1 UV-I 223 W/m 67,1 km/h (8 Bft)
11.08.2014 12:24 20,2 C 20,0 C 64 % 1011,7 hPa 0,0 l/m 2 min 0 min 4,0 UV-I 496 W/m 49,5 km/h (6 Bft)
11.08.2014 12:26 20,3 C 20,6 C 66 % 1011,8 hPa 0,0 l/m 2 min 0 min 4,1 UV-I 771 W/m 42,4 km/h (6 Bft)
11.08.2014 12:28 20,7 C 21,1 C 69 % 1011,8 hPa 0,0 l/m 2 min 0 min 4,1 UV-I 768 W/m 24,7 km/h (4 Bft)
11.08.2014 12:30 21,1 C 21,1 C 66 % 1011,8 hPa 0,0 l/m 2 min 0 min 4,1 UV-I 777 W/m 60,2 km/h (7 Bft)
11.08.2014 12:32 20,9 C 20,6 C 62 % 1011,7 hPa 0,0 l/m 2 min 0 min 4,2 UV-I 781 W/m 60,2 km/h (7 Bft)
11.08.2014 12:34 20,8 C 21,1 C 63 % 1011,8 hPa 0,0 l/m 2 min 0 min 4,2 UV-I 784 W/m 35,4 km/h (5 Bft)
11.08.2014 12:36 20,9 C 21,7 C 64 % 1011,8 hPa 0,0 l/m 2 min 0 min 4,2 UV-I 787 W/m 53,0 km/h (7 Bft)
11.08.2014 12:38 20,7 C 21,1 C 63 % 1011,8 hPa 0,0 l/m 2 min 0 min 3,7 UV-I 788 W/m 60,2 km/h (7 Bft)
11.08.2014 12:40 20,7 C 21,1 C 63 % 1011,8 hPa 0,0 l/m 2 min 0 min 3,8 UV-I 818 W/m 56,5 km/h (7 Bft)
11.08.2014 12:42 20,8 C 21,7 C 63 % 1011,7 hPa 0,0 l/m 2 min 0 min 4,1 UV-I 865 W/m 46,0 km/h (6 Bft)
11.08.2014 12:44 20,8 C 21,7 C 65 % 1011,8 hPa 0,0 l/m 2 min 0 min 4,3 UV-I 841 W/m 53,0 km/h (7 Bft)
11.08.2014 12:46 20,9 C 21,7 C 63 % 1011,7 hPa 0,0 l/m 2 min 0 min 4,1 UV-I 810 W/m 49,5 km/h (6 Bft)
11.08.2014 12:48 20,8 C 22,2 C 63 % 1011,8 hPa 0,0 l/m 2 min 0 min 2,5 UV-I 825 W/m 38,9 km/h (6 Bft)
11.08.2014 12:50 20,9 C 22,2 C 64 % 1011,7 hPa 0,0 l/m 2 min 0 min 3,2 UV-I 846 W/m 53,0 km/h (7 Bft)
11.08.2014 12:52 20,8 C 21,7 C 61 % 1011,6 hPa 0,0 l/m 2 min 0 min 4,4 UV-I 846 W/m 74,2 km/h (8 Bft)
11.08.2014 12:54 20,7 C 21,1 C 62 % 1011,6 hPa 0,0 l/m 2 min 0 min 2,9 UV-I 775 W/m 38,9 km/h (6 Bft)
11.08.2014 12:56 20,5 C 20,0 C 62 % 1011,7 hPa 0,0 l/m 0 min 0 min 2,4 UV-I 179 W/m 74,2 km/h (8 Bft)
11.08.2014 12:58 20,2 C 19,4 C 63 % 1011,6 hPa 0,0 l/m 0 min 0 min 1,9 UV-I 160 W/m 46,0 km/h (6 Bft)
11.08.2014 13:00 19,9 C 19,4 C 64 % 1011,6 hPa 0,0 l/m 0 min 0 min 2,1 UV-I 142 W/m 60,2 km/h (7 Bft)
11.08.2014 13:02 19,9 C 19,4 C 63 % 1011,6 hPa 0,0 l/m 0 min 0 min 2,5 UV-I 142 W/m 53,0 km/h (7 Bft)
11.08.2014 13:04 20,0 C 20,0 C 62 % 1011,6 hPa 0,0 l/m 2 min 0 min 2,7 UV-I 710 W/m 63,7 km/h (8 Bft)
11.08.2014 13:06 20,3 C 20,0 C 62 % 1011,6 hPa 0,0 l/m 2 min 0 min 3,3 UV-I 812 W/m 56,5 km/h (7 Bft)
11.08.2014 13:08 20,6 C 20,6 C 64 % 1011,6 hPa 0,0 l/m 2 min 0 min 3,9 UV-I 797 W/m 53,0 km/h (7 Bft)
11.08.2014 13:10 20,9 C 21,1 C 63 % 1011,6 hPa 0,0 l/m 2 min 0 min 4,3 UV-I 790 W/m 60,2 km/h (7 Bft)
11.08.2014 13:12 21,0 C 21,1 C 62 % 1011,6 hPa 0,0 l/m 2 min 0 min 3,7 UV-I 813 W/m 60,2 km/h (7 Bft)
11.08.2014 13:14 20,8 C 20,0 C 61 % 1011,6 hPa 0,0 l/m 0 min 0 min 2,4 UV-I 340 W/m 60,2 km/h (7 Bft)
11.08.2014 13:16 20,7 C 20,0 C 62 % 1011,5 hPa 0,0 l/m 2 min 0 min 4,3 UV-I 728 W/m 60,2 km/h (7 Bft)
11.08.2014 13:18 20,4 C 19,4 C 61 % 1011,5 hPa 0,0 l/m 2 min 0 min 3,0 UV-I 437 W/m 38,9 km/h (6 Bft)
11.08.2014 13:20 20,5 C 20,0 C 63 % 1011,5 hPa 0,0 l/m 0 min 0 min 3,5 UV-I 158 W/m 53,0 km/h (7 Bft)
11.08.2014 13:22 20,5 C 20,0 C 63 % 1011,6 hPa 0,0 l/m 0 min 0 min 3,3 UV-I 158 W/m 49,5 km/h (6 Bft)
11.08.2014 13:24 20,5 C 20,0 C 62 % 1011,5 hPa 0,0 l/m 0 min 0 min 3,5 UV-I 266 W/m 46,0 km/h (6 Bft)
11.08.2014 13:26 20,9 C 20,6 C 64 % 1011,5 hPa 0,0 l/m 2 min 0 min 4,2 UV-I 828 W/m 31,7 km/h (5 Bft)
11.08.2014 13:28 21,1 C 20,6 C 60 % 1011,4 hPa 0,0 l/m 2 min 0 min 3,8 UV-I 797 W/m 46,0 km/h (6 Bft)
11.08.2014 13:30 21,1 C 20,6 C 62 % 1011,5 hPa 0,0 l/m 2 min 0 min 4,3 UV-I 826 W/m 67,1 km/h (8 Bft)
11.08.2014 13:32 21,2 C 20,6 C 61 % 1011,4 hPa 0,0 l/m 2 min 0 min 4,4 UV-I 817 W/m 60,2 km/h (7 Bft)
11.08.2014 13:34 21,4 C 20,6 C 62 % 1011,5 hPa 0,0 l/m 2 min 0 min 4,4 UV-I 742 W/m 42,4 km/h (6 Bft)
11.08.2014 13:36 21,4 C 20,6 C 60 % 1011,5 hPa 0,0 l/m 2 min 0 min 4,4 UV-I 763 W/m 63,7 km/h (8 Bft)
11.08.2014 13:38 21,4 C 20,6 C 60 % 1011,5 hPa 0,0 l/m 2 min 0 min 4,4 UV-I 780 W/m 53,0 km/h (7 Bft)
11.08.2014 13:40 21,4 C 20,6 C 60 % 1011,5 hPa 0,0 l/m 2 min 0 min 4,4 UV-I 788 W/m 60,2 km/h (7 Bft)
11.08.2014 13:42 21,4 C 20,6 C 60 % 1011,6 hPa 0,0 l/m 2 min 0 min 4,4 UV-I 780 W/m 49,5 km/h (6 Bft)
11.08.2014 13:44 21,4 C 20,6 C 59 % 1011,5 hPa 0,0 l/m 2 min 0 min 4,3 UV-I 771 W/m 70,6 km/h (8 Bft)
11.08.2014 13:46 21,4 C 20,6 C 60 % 1011,5 hPa 0,0 l/m 2 min 0 min 4,4 UV-I 782 W/m 53,0 km/h (7 Bft)
11.08.2014 13:48 21,6 C 20,6 C 61 % 1011,5 hPa 0,0 l/m 2 min 0 min 4,3 UV-I 773 W/m 49,5 km/h (6 Bft)
11.08.2014 13:50 21,5 C 20,6 C 61 % 1011,5 hPa 0,0 l/m 2 min 0 min 4,3 UV-I 762 W/m 49,5 km/h (6 Bft)
11.08.2014 13:52 21,4 C 20,6 C 59 % 1011,5 hPa 0,0 l/m 2 min 0 min 4,3 UV-I 760 W/m 60,2 km/h (7 Bft)
11.08.2014 13:54 21,5 C 20,6 C 62 % 1011,5 hPa 0,0 l/m 2 min 0 min 4,3 UV-I 763 W/m 38,9 km/h (6 Bft)
11.08.2014 13:56 21,7 C 20,6 C 60 % 1011,4 hPa 0,0 l/m 2 min 0 min 4,3 UV-I 760 W/m 38,9 km/h (6 Bft)
11.08.2014 13:58 21,7 C 20,6 C 59 % 1011,4 hPa 0,0 l/m 2 min 0 min 4,3 UV-I 763 W/m 49,5 km/h (6 Bft)
11.08.2014 14:00 21,7 C 20,6 C 60 % 1011,4 hPa 0,0 l/m 2 min 0 min 4,3 UV-I 764 W/m 60,2 km/h (7 Bft)
11.08.2014 14:02 21,7 C 20,6 C 60 % 1011,4 hPa 0,0 l/m 2 min 0 min 4,3 UV-I 763 W/m 53,0 km/h (7 Bft)
11.08.2014 14:04 21,6 C 20,6 C 59 % 1011,4 hPa 0,0 l/m 2 min 0 min 4,3 UV-I 770 W/m 53,0 km/h (7 Bft)
11.08.2014 14:06 21,7 C 20,6 C 60 % 1011,4 hPa 0,0 l/m 2 min 0 min 4,3 UV-I 772 W/m 35,4 km/h (5 Bft)
11.08.2014 14:08 21,8 C 20,6 C 59 % 1011,3 hPa 0,0 l/m 2 min 0 min 4,3 UV-I 771 W/m 60,2 km/h (7 Bft)
11.08.2014 14:10 22,1 C 21,1 C 59 % 1011,4 hPa 0,0 l/m 2 min 0 min 4,2 UV-I 766 W/m 42,4 km/h (6 Bft)
11.08.2014 14:12 22,1 C 21,1 C 58 % 1011,5 hPa 0,0 l/m 2 min 0 min 4,1 UV-I 768 W/m 49,5 km/h (6 Bft)
11.08.2014 14:14 22,0 C 21,1 C 57 % 1011,3 hPa 0,0 l/m 2 min 0 min 4,2 UV-I 766 W/m 53,0 km/h (7 Bft)
11.08.2014 14:16 22,1 C 21,1 C 58 % 1011,4 hPa 0,0 l/m 2 min 0 min 4,2 UV-I 787 W/m 49,5 km/h (6 Bft)
11.08.2014 14:18 22,2 C 21,1 C 59 % 1011,3 hPa 0,0 l/m 2 min 0 min 3,4 UV-I 789 W/m 35,4 km/h (5 Bft)
11.08.2014 14:20 22,2 C 21,1 C 58 % 1011,4 hPa 0,0 l/m 2 min 0 min 4,2 UV-I 808 W/m 49,5 km/h (6 Bft)
11.08.2014 14:22 22,2 C 21,1 C 58 % 1011,3 hPa 0,0 l/m 2 min 0 min 4,0 UV-I 810 W/m 35,4 km/h (5 Bft)
11.08.2014 14:24 22,1 C 20,6 C 57 % 1011,3 hPa 0,0 l/m 2 min 0 min 2,8 UV-I 631 W/m 53,0 km/h (7 Bft)
11.08.2014 14:26 21,7 C 20,6 C 59 % 1011,4 hPa 0,0 l/m 0 min 0 min 2,0 UV-I 210 W/m 49,5 km/h (6 Bft)
11.08.2014 14:28 21,5 C 20,6 C 61 % 1011,4 hPa 0,0 l/m 2 min 0 min 3,7 UV-I 806 W/m 46,0 km/h (6 Bft)
11.08.2014 14:30 21,4 C 20,0 C 57 % 1011,4 hPa 0,0 l/m 2 min 0 min 1,9 UV-I 637 W/m 49,5 km/h (6 Bft)
11.08.2014 14:32 21,2 C 20,0 C 57 % 1011,3 hPa 0,0 l/m 0 min 0 min 3,6 UV-I 165 W/m 46,0 km/h (6 Bft)
11.08.2014 14:34 21,3 C 20,6 C 60 % 1011,3 hPa 0,0 l/m 0 min 0 min 4,1 UV-I 260 W/m 38,9 km/h (6 Bft)
11.08.2014 14:36 21,4 C 20,6 C 58 % 1011,2 hPa 0,0 l/m 2 min 0 min 4,1 UV-I 792 W/m 70,6 km/h (8 Bft)
11.08.2014 14:38 21,6 C 20,6 C 60 % 1011,2 hPa 0,0 l/m 2 min 0 min 4,0 UV-I 773 W/m 53,0 km/h (7 Bft)
11.08.2014 14:40 21,9 C 21,1 C 61 % 1011,3 hPa 0,0 l/m 2 min 0 min 3,9 UV-I 777 W/m 42,4 km/h (6 Bft)
11.08.2014 14:42 22,3 C 21,1 C 60 % 1011,3 hPa 0,0 l/m 2 min 0 min 4,0 UV-I 768 W/m 28,2 km/h (4 Bft)
11.08.2014 14:44 22,4 C 21,1 C 60 % 1011,1 hPa 0,0 l/m 2 min 0 min 3,9 UV-I 815 W/m 28,2 km/h (4 Bft)
11.08.2014 14:46 22,4 C 21,7 C 61 % 1011,2 hPa 0,0 l/m 2 min 0 min 2,7 UV-I 479 W/m 31,7 km/h (5 Bft)
11.08.2014 14:48 22,2 C 21,7 C 60 % 1011,3 hPa 0,0 l/m 2 min 0 min 4,0 UV-I 628 W/m 46,0 km/h (6 Bft)
11.08.2014 14:50 22,3 C 21,7 C 58 % 1011,2 hPa 0,0 l/m 2 min 0 min 3,9 UV-I 761 W/m 77,7 km/h (9 Bft)
11.08.2014 14:52 22,1 C 21,1 C 57 % 1011,3 hPa 0,0 l/m 2 min 0 min 3,7 UV-I 751 W/m 56,5 km/h (7 Bft)
11.08.2014 14:54 21,9 C 21,1 C 58 % 1011,4 hPa 0,0 l/m 2 min 0 min 3,4 UV-I 760 W/m 56,5 km/h (7 Bft)
11.08.2014 14:56 21,9 C 21,1 C 58 % 1011,3 hPa 0,0 l/m 2 min 0 min 3,8 UV-I 795 W/m 60,2 km/h (7 Bft)
11.08.2014 14:58 21,7 C 21,1 C 58 % 1011,4 hPa 0,0 l/m 2 min 0 min 2,9 UV-I 763 W/m 49,5 km/h (6 Bft)
11.08.2014 15:00 21,5 C 20,6 C 61 % 1011,3 hPa 0,0 l/m 0 min 0 min 1,6 UV-I 358 W/m 42,4 km/h (6 Bft)
11.08.2014 15:02 21,2 C 20,6 C 60 % 1011,3 hPa 0,0 l/m 0 min 0 min 1,4 UV-I 201 W/m 60,2 km/h (7 Bft)
11.08.2014 15:04 21,0 C 20,0 C 61 % 1011,5 hPa 0,0 l/m 0 min 0 min 1,0 UV-I 162 W/m 56,5 km/h (7 Bft)
11.08.2014 15:06 20,7 C 19,4 C 60 % 1011,5 hPa 0,0 l/m 0 min 0 min 0,6 UV-I 136 W/m 56,5 km/h (7 Bft)
11.08.2014 15:08 20,4 C 18,9 C 62 % 1011,5 hPa 0,0 l/m 0 min 0 min 0,5 UV-I 125 W/m 53,0 km/h (7 Bft)
11.08.2014 15:10 20,3 C 18,9 C 61 % 1011,5 hPa 0,0 l/m 0 min 0 min 0,6 UV-I 144 W/m 56,5 km/h (7 Bft)
11.08.2014 15:12 20,1 C 18,9 C 64 % 1011,5 hPa 0,0 l/m 0 min 0 min 0,8 UV-I 174 W/m 67,1 km/h (8 Bft)
11.08.2014 15:14 19,9 C 18,3 C 65 % 1011,6 hPa 0,0 l/m 0 min 2 min 1,0 UV-I 196 W/m 60,2 km/h (7 Bft)
11.08.2014 15:16 19,6 C 17,8 C 67 % 1011,5 hPa 0,0 l/m 0 min 2 min 1,4 UV-I 271 W/m 35,4 km/h (5 Bft)
11.08.2014 15:18 19,3 C 17,8 C 66 % 1011,5 hPa 0,0 l/m 0 min 2 min 2,3 UV-I 341 W/m 38,9 km/h (6 Bft)
11.08.2014 15:20 19,3 C 18,9 C 66 % 1011,5 hPa 0,0 l/m 2 min 2 min 3,4 UV-I 383 W/m 46,0 km/h (6 Bft)
11.08.2014 15:22 19,7 C 19,4 C 65 % 1011,5 hPa 0,0 l/m 2 min 0 min 3,7 UV-I 816 W/m 31,7 km/h (5 Bft)
11.08.2014 15:24 20,1 C 20,0 C 67 % 1011,4 hPa 0,0 l/m 2 min 0 min 3,5 UV-I 764 W/m 24,7 km/h (4 Bft)
11.08.2014 15:26 20,5 C 20,0 C 65 % 1011,4 hPa 0,0 l/m 2 min 0 min 3,4 UV-I 751 W/m 38,9 km/h (6 Bft)
11.08.2014 15:28 20,7 C 20,0 C 65 % 1011,4 hPa 0,0 l/m 2 min 0 min 2,2 UV-I 754 W/m 31,7 km/h (5 Bft)
11.08.2014 15:30 20,7 C 20,0 C 66 % 1011,4 hPa 0,0 l/m 0 min 0 min 1,6 UV-I 316 W/m 24,7 km/h (4 Bft)
11.08.2014 15:32 20,6 C 19,4 C 65 % 1011,4 hPa 0,0 l/m 0 min 0 min 1,3 UV-I 188 W/m 42,4 km/h (6 Bft)
11.08.2014 15:34 20,4 C 19,4 C 64 % 1011,4 hPa 0,0 l/m 0 min 0 min 1,1 UV-I 164 W/m 38,9 km/h (6 Bft)
11.08.2014 15:36 20,2 C 18,9 C 64 % 1011,4 hPa 0,0 l/m 0 min 0 min 1,0 UV-I 160 W/m 35,4 km/h (5 Bft)
11.08.2014 15:38 20,1 C 18,9 C 66 % 1011,5 hPa 0,0 l/m 0 min 0 min 0,9 UV-I 173 W/m 46,0 km/h (6 Bft)
11.08.2014 15:40 19,9 C 18,9 C 66 % 1011,5 hPa 0,0 l/m 0 min 0 min 1,0 UV-I 239 W/m 56,5 km/h (7 Bft)
11.08.2014 15:42 20,0 C 19,4 C 68 % 1011,5 hPa 0,0 l/m 0 min 0 min 1,8 UV-I 313 W/m 35,4 km/h (5 Bft)
11.08.2014 15:44 20,2 C 20,0 C 69 % 1011,5 hPa 0,0 l/m 2 min 0 min 2,4 UV-I 465 W/m 42,4 km/h (6 Bft)
11.08.2014 15:46 20,6 C 21,1 C 67 % 1011,5 hPa 0,0 l/m 2 min 0 min 3,3 UV-I 944 W/m 49,5 km/h (6 Bft)
11.08.2014 15:48 21,2 C 21,7 C 70 % 1011,4 hPa 0,0 l/m 2 min 0 min 3,3 UV-I 897 W/m 38,9 km/h (6 Bft)
11.08.2014 15:50 21,5 C 21,7 C 66 % 1011,4 hPa 0,0 l/m 2 min 0 min 2,1 UV-I 802 W/m 46,0 km/h (6 Bft)
11.08.2014 15:52 21,5 C 21,1 C 65 % 1011,5 hPa 0,0 l/m 0 min 0 min 2,8 UV-I 281 W/m 35,4 km/h (5 Bft)
11.08.2014 15:54 21,3 C 21,1 C 67 % 1011,4 hPa 0,0 l/m 0 min 0 min 1,5 UV-I 254 W/m 21,3 km/h (4 Bft)
11.08.2014 15:56 21,0 C 20,6 C 66 % 1011,5 hPa 0,0 l/m 0 min 0 min 1,4 UV-I 273 W/m 31,7 km/h (5 Bft)
11.08.2014 15:58 21,0 C 21,1 C 64 % 1011,5 hPa 0,0 l/m 2 min 0 min 2,3 UV-I 355 W/m 46,0 km/h (6 Bft)
11.08.2014 16:00 21,1 C 21,1 C 66 % 1011,5 hPa 0,0 l/m 2 min 0 min 2,6 UV-I 355 W/m 35,4 km/h (5 Bft)
11.08.2014 16:02 21,3 C 21,1 C 66 % 1011,5 hPa 0,0 l/m 2 min 0 min 2,2 UV-I 408 W/m 31,7 km/h (5 Bft)
11.08.2014 16:04 21,4 C 21,1 C 65 % 1011,5 hPa 0,0 l/m 2 min 0 min 2,8 UV-I 682 W/m 28,2 km/h (4 Bft)
11.08.2014 16:06 21,6 C 21,1 C 65 % 1011,4 hPa 0,0 l/m 2 min 0 min 2,8 UV-I 683 W/m 28,2 km/h (4 Bft)
11.08.2014 16:08 21,8 C 21,1 C 63 % 1011,5 hPa 0,0 l/m 2 min 0 min 2,7 UV-I 638 W/m 67,1 km/h (8 Bft)
11.08.2014 16:10 21,7 C 21,1 C 59 % 1011,4 hPa 0,0 l/m 2 min 0 min 2,6 UV-I 629 W/m 46,0 km/h (6 Bft)
11.08.2014 16:12 21,8 C 21,1 C 62 % 1011,5 hPa 0,0 l/m 2 min 0 min 2,6 UV-I 622 W/m 38,9 km/h (6 Bft)
11.08.2014 16:14 21,9 C 20,6 C 60 % 1011,4 hPa 0,0 l/m 2 min 0 min 2,5 UV-I 617 W/m 38,9 km/h (6 Bft)
11.08.2014 16:16 21,9 C 21,1 C 58 % 1011,5 hPa 0,0 l/m 2 min 0 min 2,5 UV-I 614 W/m 53,0 km/h (7 Bft)
11.08.2014 16:18 21,9 C 21,1 C 56 % 1011,6 hPa 0,0 l/m 2 min 0 min 2,5 UV-I 611 W/m 49,5 km/h (6 Bft)
11.08.2014 16:20 21,8 C 21,1 C 56 % 1011,4 hPa 0,0 l/m 2 min 0 min 2,4 UV-I 605 W/m 56,5 km/h (7 Bft)
11.08.2014 16:22 21,8 C 21,1 C 58 % 1011,4 hPa 0,0 l/m 2 min 0 min 2,4 UV-I 604 W/m 38,9 km/h (6 Bft)
11.08.2014 16:24 21,9 C 21,7 C 58 % 1011,4 hPa 0,0 l/m 2 min 0 min 2,3 UV-I 595 W/m 42,4 km/h (6 Bft)
11.08.2014 16:26 21,9 C 22,8 C 56 % 1011,4 hPa 0,0 l/m 2 min 0 min 2,3 UV-I 587 W/m 56,5 km/h (7 Bft)
11.08.2014 16:28 21,8 C 23,3 C 55 % 1011,4 hPa 0,0 l/m 2 min 0 min 2,3 UV-I 600 W/m 38,9 km/h (6 Bft)
11.08.2014 16:30 21,7 C 23,9 C 57 % 1011,4 hPa 0,0 l/m 2 min 0 min 2,3 UV-I 616 W/m 31,7 km/h (5 Bft)
11.08.2014 16:32 21,7 C 22,8 C 57 % 1011,3 hPa 0,0 l/m 2 min 0 min 2,0 UV-I 636 W/m 38,9 km/h (6 Bft)
11.08.2014 16:34 21,7 C 21,7 C 57 % 1011,3 hPa 0,0 l/m 2 min 0 min 1,4 UV-I 636 W/m 46,0 km/h (6 Bft)
11.08.2014 16:36 21,5 C 21,1 C 57 % 1011,3 hPa 0,0 l/m 2 min 0 min 1,3 UV-I 608 W/m 53,0 km/h (7 Bft)
11.08.2014 16:38 21,2 C 20,6 C 58 % 1011,3 hPa 0,0 l/m 0 min 0 min 1,0 UV-I 168 W/m 31,7 km/h (5 Bft)
11.08.2014 16:40 21,1 C 20,0 C 61 % 1011,3 hPa 0,0 l/m 0 min 0 min 0,8 UV-I 145 W/m 38,9 km/h (6 Bft)
11.08.2014 16:42 20,9 C 20,0 C 60 % 1011,3 hPa 0,0 l/m 0 min 0 min 0,6 UV-I 122 W/m 24,7 km/h (4 Bft)
11.08.2014 16:44 20,7 C 19,4 C 62 % 1011,3 hPa 0,0 l/m 0 min 0 min 0,0 UV-I 104 W/m 24,7 km/h (4 Bft)
11.08.2014 16:46 20,6 C 19,4 C 63 % 1011,3 hPa 0,0 l/m 0 min 0 min 0,0 UV-I 95 W/m 24,7 km/h (4 Bft)
11.08.2014 16:48 20,4 C 19,4 C 63 % 1011,3 hPa 0,0 l/m 0 min 0 min 0,0 UV-I 96 W/m 24,7 km/h (4 Bft)
11.08.2014 16:50 20,3 C 18,9 C 64 % 1011,3 hPa 0,0 l/m 0 min 0 min 0,0 UV-I 123 W/m 28,2 km/h (4 Bft)
11.08.2014 16:52 20,1 C 18,9 C 63 % 1011,3 hPa 0,0 l/m 0 min 0 min 0,0 UV-I 131 W/m 38,9 km/h (6 Bft)
11.08.2014 16:54 20,1 C 18,9 C 64 % 1011,3 hPa 0,0 l/m 0 min 0 min 0,0 UV-I 122 W/m 21,3 km/h (4 Bft)
11.08.2014 16:56 20,1 C 18,9 C 66 % 1011,2 hPa 0,0 l/m 0 min 0 min 0,0 UV-I 100 W/m 24,7 km/h (4 Bft)
11.08.2014 16:58 20,1 C 18,9 C 65 % 1011,2 hPa 0,0 l/m 0 min 0 min 0,0 UV-I 93 W/m 28,2 km/h (4 Bft)
11.08.2014 17:00 20,1 C 18,9 C 65 % 1011,2 hPa 0,0 l/m 0 min 0 min 0,0 UV-I 83 W/m 24,7 km/h (4 Bft)
11.08.2014 17:02 20,0 C 18,9 C 65 % 1011,3 hPa 0,0 l/m 0 min 0 min 0,0 UV-I 75 W/m 28,2 km/h (4 Bft)
11.08.2014 17:04 20,0 C 18,9 C 65 % 1011,3 hPa 0,0 l/m 0 min 0 min 0,0 UV-I 66 W/m 24,7 km/h (4 Bft)
11.08.2014 17:06 19,9 C 18,3 C 65 % 1011,3 hPa 0,0 l/m 0 min 0 min 0,0 UV-I 57 W/m 49,5 km/h (6 Bft)
11.08.2014 17:08 19,9 C 16,7 C 67 % 1011,5 hPa 0,2 l/m 0 min 2 min 0,0 UV-I 58 W/m 84,9 km/h (9 Bft)
11.08.2014 17:10 19,4 C 14,4 C 72 % 1011,7 hPa 0,6 l/m 0 min 2 min 0,0 UV-I 82 W/m 74,2 km/h (8 Bft)
11.08.2014 17:12 18,5 C 14,4 C 77 % 1011,8 hPa 0,2 l/m 0 min 2 min 0,0 UV-I 135 W/m 49,5 km/h (6 Bft)
11.08.2014 17:14 17,8 C 14,4 C 80 % 1011,7 hPa 0,0 l/m 0 min 2 min 0,1 UV-I 200 W/m 31,7 km/h (5 Bft)
11.08.2014 17:16 17,4 C 15,0 C 83 % 1011,7 hPa 0,0 l/m 2 min 0 min 1,0 UV-I 383 W/m 28,2 km/h (4 Bft)
11.08.2014 17:18 17,3 C 15,0 C 85 % 1011,7 hPa 0,0 l/m 2 min 0 min 1,3 UV-I 565 W/m 31,7 km/h (5 Bft)
11.08.2014 17:20 17,4 C 15,6 C 85 % 1011,7 hPa 0,0 l/m 2 min 0 min 1,3 UV-I 549 W/m 31,7 km/h (5 Bft)
11.08.2014 17:22 17,6 C 15,6 C 85 % 1011,8 hPa 0,0 l/m 2 min 0 min 1,3 UV-I 518 W/m 38,9 km/h (6 Bft)
11.08.2014 17:24 17,7 C 15,6 C 84 % 1011,7 hPa 0,0 l/m 2 min 0 min 1,1 UV-I 510 W/m 42,4 km/h (6 Bft)
11.08.2014 17:26 17,8 C 15,6 C 85 % 1011,8 hPa 0,0 l/m 2 min 0 min 1,1 UV-I 498 W/m 35,4 km/h (5 Bft)
11.08.2014 17:28 17,7 C 15,6 C 82 % 1011,8 hPa 0,0 l/m 0 min 0 min 0,6 UV-I 205 W/m 49,5 km/h (6 Bft)
11.08.2014 17:30 17,6 C 15,0 C 80 % 1011,7 hPa 0,0 l/m 0 min 0 min 0,5 UV-I 177 W/m 46,0 km/h (6 Bft)
11.08.2014 17:32 17,5 C 15,0 C 81 % 1011,7 hPa 0,0 l/m 0 min 0 min 0,5 UV-I 203 W/m 24,7 km/h (4 Bft)
11.08.2014 17:34 17,4 C 15,6 C 81 % 1011,6 hPa 0,0 l/m 0 min 0 min 0,3 UV-I 220 W/m 35,4 km/h (5 Bft)
11.08.2014 17:36 17,4 C 15,6 C 80 % 1011,6 hPa 0,0 l/m 0 min 0 min 0,0 UV-I 217 W/m 38,9 km/h (6 Bft)
11.08.2014 17:38 17,4 C 15,6 C 82 % 1011,7 hPa 0,0 l/m 0 min 0 min 0,0 UV-I 225 W/m 21,3 km/h (4 Bft)
11.08.2014 17:40 17,4 C 15,6 C 81 % 1011,7 hPa 0,0 l/m 0 min 0 min 0,0 UV-I 243 W/m 24,7 km/h (4 Bft)
11.08.2014 17:42 17,4 C 15,6 C 82 % 1011,7 hPa 0,0 l/m 0 min 0 min 0,0 UV-I 238 W/m 21,3 km/h (4 Bft)
11.08.2014 17:44 17,5 C 15,6 C 83 % 1011,6 hPa 0,0 l/m 0 min 0 min 0,0 UV-I 219 W/m 17,7 km/h (3 Bft)
11.08.2014 17:46 17,5 C 15,6 C 81 % 1011,6 hPa 0,0 l/m 0 min 0 min 0,0 UV-I 218 W/m 24,7 km/h (4 Bft)
11.08.2014 17:48 17,6 C 16,1 C 82 % 1011,6 hPa 0,0 l/m 0 min 0 min 0,0 UV-I 218 W/m 14,2 km/h (3 Bft)
11.08.2014 17:50 17,7 C 16,1 C 82 % 1011,6 hPa 0,0 l/m 0 min 0 min 0,0 UV-I 203 W/m 17,7 km/h (3 Bft)
11.08.2014 17:52 17,8 C 16,1 C 84 % 1011,7 hPa 0,0 l/m 0 min 0 min 0,0 UV-I 183 W/m 17,7 km/h (3 Bft)
11.08.2014 17:54 17,8 C 16,1 C 81 % 1011,6 hPa 0,0 l/m 0 min 0 min 0,0 UV-I 157 W/m 14,2 km/h (3 Bft)
11.08.2014 17:56 17,7 C 16,1 C 82 % 1011,6 hPa 0,0 l/m 0 min 0 min 0,0 UV-I 139 W/m 17,7 km/h (3 Bft)
11.08.2014 17:58 17,8 C 15,6 C 81 % 1011,6 hPa 0,0 l/m 0 min 0 min 0,0 UV-I 125 W/m 17,7 km/h (3 Bft)
11.08.2014 18:00 17,7 C 15,6 C 80 % 1011,7 hPa 0,0 l/m 0 min 0 min 0,0 UV-I 110 W/m 17,7 km/h (3 Bft)
11.08.2014 18:02 17,7 C 15,0 C 78 % 1011,7 hPa 0,0 l/m 0 min 0 min 0,0 UV-I 97 W/m 14,2 km/h (3 Bft)
11.08.2014 18:05 17,7 C 15,0 C 79 % 1011,7 hPa 0,0 l/m 0 min 0 min 0,0 UV-I 91 W/m 24,7 km/h (4 Bft)
11.08.2014 18:06 17,7 C 15,0 C 79 % 1011,7 hPa 0,0 l/m 0 min 0 min 0,0 UV-I 92 W/m 24,7 km/h (4 Bft)
11.08.2014 18:08 17,7 C 15,0 C 76 % 1011,8 hPa 0,0 l/m 0 min 0 min 0,0 UV-I 88 W/m 31,7 km/h (5 Bft)
11.08.2014 18:10 17,8 C 15,0 C 75 % 1011,8 hPa 0,0 l/m 0 min 0 min 0,0 UV-I 88 W/m 24,7 km/h (4 Bft)
11.08.2014 18:12 17,8 C 15,0 C 75 % 1011,8 hPa 0,0 l/m 0 min 0 min 0,0 UV-I 93 W/m 17,7 km/h (3 Bft)
11.08.2014 18:14 17,8 C 15,0 C 76 % 1011,7 hPa 0,0 l/m 0 min 0 min 0,0 UV-I 96 W/m 24,7 km/h (4 Bft)
11.08.2014 18:16 17,8 C 15,0 C 76 % 1011,6 hPa 0,0 l/m 0 min 0 min 0,0 UV-I 101 W/m 10,7 km/h (2 Bft)
11.08.2014 18:18 17,8 C 15,0 C 76 % 1011,6 hPa 0,0 l/m 0 min 0 min 0,0 UV-I 104 W/m 10,7 km/h (2 Bft)
11.08.2014 18:20 17,8 C 15,0 C 77 % 1011,7 hPa 0,0 l/m 0 min 0 min 0,0 UV-I 102 W/m 14,2 km/h (3 Bft)
11.08.2014 18:22 17,8 C 15,0 C 76 % 1011,7 hPa 0,0 l/m 0 min 0 min 0,0 UV-I 96 W/m 14,2 km/h (3 Bft)
11.08.2014 18:24 17,8 C 15,0 C 76 % 1011,8 hPa 0,0 l/m 0 min 0 min 0,0 UV-I 88 W/m 14,2 km/h (3 Bft)
11.08.2014 18:26 17,8 C 15,0 C 76 % 1011,7 hPa 0,0 l/m 0 min 0 min 0,0 UV-I 82 W/m 14,2 km/h (3 Bft)
11.08.2014 18:28 17,8 C 15,0 C 75 % 1011,7 hPa 0,0 l/m 0 min 0 min 0,0 UV-I 76 W/m 17,7 km/h (3 Bft)
11.08.2014 18:30 17,8 C 15,0 C 76 % 1011,8 hPa 0,0 l/m 0 min 0 min 0,0 UV-I 70 W/m 14,2 km/h (3 Bft)
11.08.2014 18:32 17,7 C 15,0 C 77 % 1011,8 hPa 0,0 l/m 0 min 0 min 0,0 UV-I 66 W/m 28,2 km/h (4 Bft)
11.08.2014 18:34 17,7 C 15,0 C 76 % 1011,8 hPa 0,0 l/m 0 min 0 min 0,0 UV-I 61 W/m 35,4 km/h (5 Bft)
11.08.2014 18:36 17,7 C 15,0 C 75 % 1011,9 hPa 0,0 l/m 0 min 0 min 0,0 UV-I 61 W/m 28,2 km/h (4 Bft)
11.08.2014 18:38 17,7 C 14,4 C 75 % 1011,9 hPa 0,0 l/m 0 min 0 min 0,0 UV-I 62 W/m 38,9 km/h (6 Bft)
11.08.2014 18:40 17,8 C 15,0 C 74 % 1011,8 hPa 0,0 l/m 0 min 0 min 0,0 UV-I 63 W/m 46,0 km/h (6 Bft)
11.08.2014 18:42 17,8 C 15,0 C 74 % 1011,9 hPa 0,0 l/m 0 min 0 min 0,0 UV-I 66 W/m 35,4 km/h (5 Bft)
11.08.2014 18:44 17,8 C 15,0 C 74 % 1011,9 hPa 0,0 l/m 0 min 2 min 0,0 UV-I 74 W/m 53,0 km/h (7 Bft)
11.08.2014 18:46 17,9 C 14,4 C 74 % 1012,0 hPa 0,0 l/m 0 min 2 min 0,0 UV-I 78 W/m 49,5 km/h (6 Bft)
11.08.2014 18:48 17,8 C 14,4 C 74 % 1011,9 hPa 0,0 l/m 0 min 2 min 0,0 UV-I 79 W/m 49,5 km/h (6 Bft)
11.08.2014 18:50 17,9 C 14,4 C 74 % 1011,9 hPa 0,0 l/m 0 min 0 min 0,0 UV-I 82 W/m 46,0 km/h (6 Bft)
11.08.2014 18:52 17,8 C 14,4 C 75 % 1011,9 hPa 0,0 l/m 0 min 0 min 0,0 UV-I 81 W/m 31,7 km/h (5 Bft)
11.08.2014 18:54 17,8 C 15,0 C 76 % 1012,0 hPa 0,0 l/m 0 min 0 min 0,0 UV-I 77 W/m 21,3 km/h (4 Bft)
11.08.2014 18:56 17,8 C 15,0 C 76 % 1012,0 hPa 0,0 l/m 0 min 0 min 0,0 UV-I 73 W/m 42,4 km/h (6 Bft)
11.08.2014 18:58 17,7 C 15,0 C 76 % 1012,1 hPa 0,2 l/m 0 min 0 min 0,0 UV-I 70 W/m 70,6 km/h (8 Bft)
11.08.2014 19:00 17,7 C 15,0 C 74 % 1012,2 hPa 0,0 l/m 0 min 0 min 0,0 UV-I 65 W/m 70,6 km/h (8 Bft)
11.08.2014 19:02 17,6 C 14,4 C 75 % 1012,2 hPa 0,0 l/m 0 min 0 min 0,0 UV-I 59 W/m 38,9 km/h (6 Bft)
11.08.2014 19:04 17,6 C 14,4 C 76 % 1012,2 hPa 0,0 l/m 0 min 0 min 0,0 UV-I 54 W/m 38,9 km/h (6 Bft)
11.08.2014 19:06 17,5 C 14,4 C 76 % 1012,2 hPa 0,0 l/m 0 min 0 min 0,0 UV-I 51 W/m 70,6 km/h (8 Bft)
11.08.2014 19:08 17,4 C 14,4 C 75 % 1012,2 hPa 0,0 l/m 0 min 0 min 0,0 UV-I 49 W/m 49,5 km/h (6 Bft)
11.08.2014 19:10 17,3 C 14,4 C 75 % 1012,1 hPa 0,0 l/m 0 min 0 min 0,0 UV-I 50 W/m 46,0 km/h (6 Bft)
11.08.2014 19:12 17,2 C 14,4 C 76 % 1012,2 hPa 0,0 l/m 0 min 0 min 0,0 UV-I 54 W/m 38,9 km/h (6 Bft)
11.08.2014 19:14 17,1 C 14,4 C 76 % 1012,2 hPa 0,0 l/m 0 min 2 min 0,0 UV-I 64 W/m 63,7 km/h (8 Bft)
11.08.2014 19:16 17,0 C 14,4 C 76 % 1012,1 hPa 0,0 l/m 0 min 0 min 0,0 UV-I 71 W/m 60,2 km/h (7 Bft)
11.08.2014 19:18 16,9 C 14,4 C 77 % 1012,1 hPa 0,0 l/m 0 min 0 min 0,0 UV-I 70 W/m 31,7 km/h (5 Bft)
11.08.2014 19:20 16,9 C 14,4 C 77 % 1012,0 hPa 0,0 l/m 0 min 0 min 0,0 UV-I 65 W/m 24,7 km/h (4 Bft)
11.08.2014 19:22 16,8 C 14,4 C 78 % 1012,0 hPa 0,0 l/m 0 min 0 min 0,0 UV-I 60 W/m 46,0 km/h (6 Bft)
11.08.2014 19:24 16,7 C 14,4 C 78 % 1012,1 hPa 0,0 l/m 0 min 2 min 0,0 UV-I 59 W/m 28,2 km/h (4 Bft)
11.08.2014 19:26 16,7 C 13,9 C 78 % 1012,1 hPa 0,0 l/m 0 min 0 min 0,0 UV-I 59 W/m 35,4 km/h (5 Bft)
11.08.2014 19:28 16,6 C 13,9 C 78 % 1012,1 hPa 0,0 l/m 0 min 0 min 0,0 UV-I 54 W/m 35,4 km/h (5 Bft)
11.08.2014 19:30 16,6 C 13,9 C 79 % 1012,1 hPa 0,0 l/m 0 min 0 min 0,0 UV-I 49 W/m 24,7 km/h (4 Bft)
11.08.2014 19:32 16,5 C 13,9 C 80 % 1012,0 hPa 0,0 l/m 0 min 0 min 0,0 UV-I 40 W/m 24,7 km/h (4 Bft)
11.08.2014 19:34 16,4 C 13,9 C 79 % 1012,0 hPa 0,0 l/m 0 min 2 min 0,0 UV-I 35 W/m 38,9 km/h (6 Bft)
11.08.2014 19:36 16,4 C 13,9 C 80 % 1012,0 hPa 0,0 l/m 0 min 2 min 0,0 UV-I 31 W/m 35,4 km/h (5 Bft)
11.08.2014 19:38 16,3 C 13,9 C 80 % 1012,0 hPa 0,0 l/m 0 min 0 min 0,0 UV-I 28 W/m 42,4 km/h (6 Bft)
11.08.2014 19:40 16,2 C 13,9 C 81 % 1012,0 hPa 0,0 l/m 0 min 0 min 0,0 UV-I 26 W/m 35,4 km/h (5 Bft)
11.08.2014 19:42 16,2 C 13,9 C 82 % 1012,1 hPa 0,0 l/m 0 min 2 min 0,0 UV-I 28 W/m 24,7 km/h (4 Bft)
11.08.2014 19:44 16,1 C 13,9 C 82 % 1012,0 hPa 0,0 l/m 0 min 2 min 0,0 UV-I 33 W/m 24,7 km/h (4 Bft)
11.08.2014 19:46 16,1 C 13,3 C 82 % 1012,1 hPa 0,0 l/m 0 min 2 min 0,0 UV-I 39 W/m 14,2 km/h (3 Bft)
11.08.2014 19:48 16,0 C 13,3 C 84 % 1012,0 hPa 0,0 l/m 0 min 2 min 0,0 UV-I 53 W/m 21,3 km/h (4 Bft)
11.08.2014 19:50 15,9 C 13,3 C 84 % 1011,9 hPa 0,0 l/m 0 min 2 min 0,0 UV-I 62 W/m 31,7 km/h (5 Bft)
11.08.2014 19:52 15,8 C 13,3 C 84 % 1011,9 hPa 0,0 l/m 0 min 0 min 0,0 UV-I 60 W/m 21,3 km/h (4 Bft)
11.08.2014 19:54 15,7 C 13,3 C 84 % 1011,8 hPa 0,0 l/m 0 min 0 min 0,0 UV-I 55 W/m 31,7 km/h (5 Bft)
11.08.2014 19:56 15,7 C 13,3 C 85 % 1011,8 hPa 0,0 l/m 0 min 0 min 0,0 UV-I 53 W/m 17,7 km/h (3 Bft)
11.08.2014 19:58 15,7 C 13,3 C 85 % 1011,8 hPa 0,0 l/m 0 min 0 min 0,0 UV-I 48 W/m 24,7 km/h (4 Bft)
11.08.2014 20:00 15,7 C 13,3 C 85 % 1011,9 hPa 0,0 l/m 0 min 0 min 0,0 UV-I 43 W/m 35,4 km/h (5 Bft)
11.08.2014 20:02 15,6 C 13,3 C 86 % 1011,8 hPa 0,0 l/m 0 min 0 min 0,0 UV-I 42 W/m 21,3 km/h (4 Bft)
11.08.2014 20:04 15,6 C 13,3 C 86 % 1011,8 hPa 0,0 l/m 0 min 0 min 0,0 UV-I 40 W/m 21,3 km/h (4 Bft)
11.08.2014 20:06 15,6 C 13,3 C 87 % 1011,7 hPa 0,0 l/m 0 min 0 min 0,0 UV-I 41 W/m 10,7 km/h (2 Bft)
11.08.2014 20:08 15,6 C 13,3 C 87 % 1011,6 hPa 0,0 l/m 0 min 0 min 0,0 UV-I 42 W/m 10,7 km/h (2 Bft)
11.08.2014 20:10 15,6 C 13,9 C 87 % 1011,7 hPa 0,0 l/m 0 min 0 min 0,0 UV-I 38 W/m 21,3 km/h (4 Bft)
11.08.2014 20:12 15,5 C 13,9 C 87 % 1011,6 hPa 0,0 l/m 0 min 0 min 0,0 UV-I 33 W/m 24,7 km/h (4 Bft)
11.08.2014 20:14 15,5 C 13,9 C 86 % 1011,7 hPa 0,0 l/m 0 min 0 min 0,0 UV-I 34 W/m 24,7 km/h (4 Bft)
11.08.2014 20:16 15,6 C 13,9 C 86 % 1011,7 hPa 0,0 l/m 0 min 0 min 0,0 UV-I 27 W/m 28,2 km/h (4 Bft)
11.08.2014 20:18 15,6 C 13,9 C 86 % 1011,7 hPa 0,0 l/m 0 min 0 min 0,0 UV-I 30 W/m 24,7 km/h (4 Bft)
11.08.2014 20:20 15,6 C 13,9 C 86 % 1011,7 hPa 0,0 l/m 0 min 0 min 0,0 UV-I 33 W/m 28,2 km/h (4 Bft)
11.08.2014 20:22 15,6 C 13,9 C 87 % 1011,7 hPa 0,0 l/m 0 min 0 min 0,0 UV-I 37 W/m 21,3 km/h (4 Bft)
11.08.2014 20:24 15,6 C 13,9 C 87 % 1011,8 hPa 0,0 l/m 0 min 0 min 0,0 UV-I 39 W/m 24,7 km/h (4 Bft)
11.08.2014 20:26 15,6 C 13,9 C 87 % 1011,8 hPa 0,0 l/m 0 min 2 min 0,0 UV-I 32 W/m 21,3 km/h (4 Bft)
11.08.2014 20:28 15,6 C 13,9 C 87 % 1011,7 hPa 0,0 l/m 0 min 2 min 0,0 UV-I 28 W/m 24,7 km/h (4 Bft)
11.08.2014 20:30 15,7 C 13,9 C 87 % 1011,7 hPa 0,0 l/m 0 min 2 min 0,0 UV-I 26 W/m 24,7 km/h (4 Bft)
11.08.2014 20:32 15,7 C 13,9 C 87 % 1011,7 hPa 0,0 l/m 0 min 0 min 0,0 UV-I 26 W/m 21,3 km/h (4 Bft)
11.08.2014 20:34 15,6 C 13,9 C 87 % 1011,6 hPa 0,0 l/m 0 min 0 min 0,0 UV-I 25 W/m 24,7 km/h (4 Bft)
11.08.2014 20:36 15,6 C 13,9 C 87 % 1011,6 hPa 0,0 l/m 0 min 0 min 0,0 UV-I 22 W/m 31,7 km/h (5 Bft)
11.08.2014 20:38 15,6 C 13,9 C 87 % 1011,6 hPa 0,0 l/m 0 min 0 min 0,0 UV-I 19 W/m 24,7 km/h (4 Bft)
11.08.2014 20:40 15,6 C 13,9 C 87 % 1011,6 hPa 0,0 l/m 0 min 0 min 0,0 UV-I 17 W/m 35,4 km/h (5 Bft)
11.08.2014 20:42 15,6 C 13,9 C 87 % 1011,6 hPa 0,0 l/m 0 min 0 min 0,0 UV-I 16 W/m 35,4 km/h (5 Bft)
11.08.2014 20:44 15,6 C 13,9 C 86 % 1011,6 hPa 0,0 l/m 0 min 0 min 0,0 UV-I 16 W/m 42,4 km/h (6 Bft)
11.08.2014 20:46 15,6 C 13,9 C 86 % 1011,6 hPa 0,0 l/m 0 min 0 min 0,0 UV-I 14 W/m 28,2 km/h (4 Bft)
11.08.2014 20:48 15,6 C 13,9 C 86 % 1011,6 hPa 0,0 l/m 0 min 0 min 0,0 UV-I 12 W/m 24,7 km/h (4 Bft)
11.08.2014 20:50 15,6 C 13,9 C 86 % 1011,5 hPa 0,0 l/m 0 min 0 min 0,0 UV-I 11 W/m 31,7 km/h (5 Bft)
11.08.2014 20:52 15,6 C 13,9 C 86 % 1011,5 hPa 0,0 l/m 0 min 0 min 0,0 UV-I 9 W/m 31,7 km/h (5 Bft)
11.08.2014 20:54 15,6 C 13,9 C 86 % 1011,5 hPa 0,0 l/m 0 min 0 min 0,0 UV-I 8 W/m 31,7 km/h (5 Bft)
11.08.2014 20:56 15,6 C 13,9 C 86 % 1011,5 hPa 0,0 l/m 0 min 0 min 0,0 UV-I 7 W/m 17,7 km/h (3 Bft)
11.08.2014 20:58 15,6 C 13,9 C 86 % 1011,5 hPa 0,0 l/m 0 min 0 min 0,0 UV-I 0 W/m 24,7 km/h (4 Bft)
11.08.2014 21:00 15,6 C 13,9 C 86 % 1011,5 hPa 0,0 l/m 0 min 0 min 0,0 UV-I 0 W/m 21,3 km/h (4 Bft)
11.08.2014 21:02 15,5 C 13,9 C 86 % 1011,5 hPa 0,0 l/m 0 min 0 min 0,0 UV-I 0 W/m 21,3 km/h (4 Bft)
11.08.2014 21:04 15,5 C 13,9 C 86 % 1011,6 hPa 0,0 l/m 0 min 0 min 0,0 UV-I 0 W/m 28,2 km/h (4 Bft)
11.08.2014 21:06 15,5 C 13,9 C 86 % 1011,6 hPa 0,0 l/m 0 min 0 min 0,0 UV-I 0 W/m 21,3 km/h (4 Bft)
11.08.2014 21:08 15,5 C 13,9 C 86 % 1011,6 hPa 0,0 l/m 0 min 0 min 0,0 UV-I 0 W/m 21,3 km/h (4 Bft)
11.08.2014 21:10 15,4 C 13,9 C 86 % 1011,5 hPa 0,0 l/m 0 min 0 min 0,0 UV-I 0 W/m 31,7 km/h (5 Bft)
11.08.2014 21:12 15,4 C 13,9 C 86 % 1011,5 hPa 0,0 l/m 0 min 0 min 0,0 UV-I 0 W/m 28,2 km/h (4 Bft)
11.08.2014 21:14 15,4 C 13,9 C 86 % 1011,6 hPa 0,0 l/m 0 min 0 min 0,0 UV-I 0 W/m 17,7 km/h (3 Bft)
11.08.2014 21:16 15,4 C 13,9 C 86 % 1011,6 hPa 0,0 l/m 0 min 0 min 0,0 UV-I 0 W/m 24,7 km/h (4 Bft)
11.08.2014 21:18 15,4 C 13,9 C 86 % 1011,6 hPa 0,0 l/m 0 min 0 min 0,0 UV-I 0 W/m 24,7 km/h (4 Bft)
11.08.2014 21:20 15,4 C 13,9 C 86 % 1011,6 hPa 0,0 l/m 0 min 0 min 0,0 UV-I 0 W/m 24,7 km/h (4 Bft)
11.08.2014 21:22 15,4 C 13,9 C 87 % 1011,6 hPa 0,0 l/m 0 min 0 min 0,0 UV-I 0 W/m 24,7 km/h (4 Bft)
11.08.2014 21:24 15,4 C 13,9 C 87 % 1011,6 hPa 0,0 l/m 0 min 0 min 0,0 UV-I 0 W/m 24,7 km/h (4 Bft)
11.08.2014 21:26 15,4 C 13,9 C 87 % 1011,6 hPa 0,0 l/m 0 min 0 min 0,0 UV-I 0 W/m 24,7 km/h (4 Bft)
11.08.2014 21:28 15,3 C 13,9 C 87 % 1011,6 hPa 0,0 l/m 0 min 0 min 0,0 UV-I 0 W/m 31,7 km/h (5 Bft)
11.08.2014 21:30 15,3 C 13,9 C 87 % 1011,7 hPa 0,0 l/m 0 min 0 min 0,0 UV-I 0 W/m 17,7 km/h (3 Bft)
11.08.2014 21:32 15,3 C 13,9 C 87 % 1011,7 hPa 0,0 l/m 0 min 0 min 0,0 UV-I 0 W/m 17,7 km/h (3 Bft)
11.08.2014 21:34 15,3 C 13,9 C 87 % 1011,6 hPa 0,0 l/m 0 min 0 min 0,0 UV-I 0 W/m 24,7 km/h (4 Bft)
11.08.2014 21:36 15,3 C 13,9 C 87 % 1011,7 hPa 0,0 l/m 0 min 0 min 0,0 UV-I 0 W/m 24,7 km/h (4 Bft)
11.08.2014 21:38 15,2 C 13,9 C 87 % 1011,6 hPa 0,0 l/m 0 min 0 min 0,0 UV-I 0 W/m 28,2 km/h (4 Bft)
11.08.2014 21:40 15,2 C 13,9 C 87 % 1011,7 hPa 0,0 l/m 0 min 0 min 0,0 UV-I 0 W/m 28,2 km/h (4 Bft)
11.08.2014 21:42 15,2 C 13,9 C 87 % 1011,7 hPa 0,0 l/m 0 min 0 min 0,0 UV-I 0 W/m 28,2 km/h (4 Bft)
11.08.2014 21:44 15,2 C 13,9 C 87 % 1011,6 hPa 0,0 l/m 0 min 0 min 0,0 UV-I 0 W/m 31,7 km/h (5 Bft)
11.08.2014 21:46 15,2 C 13,9 C 87 % 1011,7 hPa 0,0 l/m 0 min 0 min 0,0 UV-I 0 W/m 21,3 km/h (4 Bft)
11.08.2014 21:48 15,2 C 13,9 C 87 % 1011,6 hPa 0,0 l/m 0 min 0 min 0,0 UV-I 0 W/m 21,3 km/h (4 Bft)
11.08.2014 21:50 15,2 C 13,9 C 87 % 1011,6 hPa 0,0 l/m 0 min 0 min 0,0 UV-I 0 W/m 24,7 km/h (4 Bft)
11.08.2014 21:52 15,2 C 13,9 C 88 % 1011,6 hPa 0,0 l/m 0 min 0 min 0,0 UV-I 0 W/m 24,7 km/h (4 Bft)
11.08.2014 21:54 15,2 C 13,9 C 88 % 1011,6 hPa 0,0 l/m 0 min 0 min 0,0 UV-I 0 W/m 28,2 km/h (4 Bft)
11.08.2014 21:56 15,2 C 13,9 C 88 % 1011,7 hPa 0,0 l/m 0 min 0 min 0,0 UV-I 0 W/m 35,4 km/h (5 Bft)
11.08.2014 21:58 15,2 C 13,9 C 87 % 1011,7 hPa 0,0 l/m 0 min 0 min 0,0 UV-I 0 W/m 28,2 km/h (4 Bft)
11.08.2014 22:00 15,2 C 13,9 C 87 % 1011,7 hPa 0,0 l/m 0 min 0 min 0,0 UV-I 0 W/m 35,4 km/h (5 Bft)
11.08.2014 22:02 15,2 C 13,9 C 87 % 1011,6 hPa 0,0 l/m 0 min 0 min 0,0 UV-I 0 W/m 31,7 km/h (5 Bft)
11.08.2014 22:04 15,3 C 13,9 C 87 % 1011,7 hPa 0,0 l/m 0 min 0 min 0,0 UV-I 0 W/m 21,3 km/h (4 Bft)
11.08.2014 22:06 15,3 C 13,9 C 87 % 1011,6 hPa 0,0 l/m 0 min 0 min 0,0 UV-I 0 W/m 28,2 km/h (4 Bft)
11.08.2014 22:08 15,3 C 13,9 C 87 % 1011,6 hPa 0,0 l/m 0 min 0 min 0,0 UV-I 0 W/m 28,2 km/h (4 Bft)
11.08.2014 22:10 15,3 C 13,9 C 87 % 1011,6 hPa 0,0 l/m 0 min 0 min 0,0 UV-I 0 W/m 24,7 km/h (4 Bft)
11.08.2014 22:12 15,4 C 13,9 C 87 % 1011,7 hPa 0,0 l/m 0 min 0 min 0,0 UV-I 0 W/m 24,7 km/h (4 Bft)
11.08.2014 22:14 15,4 C 13,9 C 86 % 1011,7 hPa 0,0 l/m 0 min 0 min 0,0 UV-I 0 W/m 21,3 km/h (4 Bft)
11.08.2014 22:16 15,4 C 13,9 C 87 % 1011,7 hPa 0,0 l/m 0 min 0 min 0,0 UV-I 0 W/m 24,7 km/h (4 Bft)
11.08.2014 22:18 15,4 C 13,9 C 87 % 1011,7 hPa 0,0 l/m 0 min 0 min 0,0 UV-I 0 W/m 28,2 km/h (4 Bft)
11.08.2014 22:20 15,4 C 13,9 C 87 % 1011,6 hPa 0,0 l/m 0 min 0 min 0,0 UV-I 0 W/m 35,4 km/h (5 Bft)
11.08.2014 22:22 15,4 C 13,9 C 87 % 1011,7 hPa 0,0 l/m 0 min 0 min 0,0 UV-I 0 W/m 28,2 km/h (4 Bft)
11.08.2014 22:24 15,4 C 13,9 C 87 % 1011,6 hPa 0,0 l/m 0 min 0 min 0,0 UV-I 0 W/m 28,2 km/h (4 Bft)
11.08.2014 22:26 15,4 C 13,9 C 87 % 1011,6 hPa 0,0 l/m 0 min 0 min 0,0 UV-I 0 W/m 35,4 km/h (5 Bft)
11.08.2014 22:28 15,4 C 13,9 C 87 % 1011,6 hPa 0,0 l/m 0 min 0 min 0,0 UV-I 0 W/m 28,2 km/h (4 Bft)
11.08.2014 22:30 15,5 C 13,9 C 86 % 1011,6 hPa 0,0 l/m 0 min 0 min 0,0 UV-I 0 W/m 24,7 km/h (4 Bft)
11.08.2014 22:32 15,5 C 14,4 C 86 % 1011,6 hPa 0,0 l/m 0 min 0 min 0,0 UV-I 0 W/m 35,4 km/h (5 Bft)
11.08.2014 22:34 15,6 C 14,4 C 86 % 1011,6 hPa 0,0 l/m 0 min 0 min 0,0 UV-I 0 W/m 35,4 km/h (5 Bft)
11.08.2014 22:36 15,6 C 14,4 C 86 % 1011,6 hPa 0,0 l/m 0 min 0 min 0,0 UV-I 0 W/m 28,2 km/h (4 Bft)
11.08.2014 22:38 15,6 C 14,4 C 86 % 1011,6 hPa 0,0 l/m 0 min 0 min 0,0 UV-I 0 W/m 38,9 km/h (6 Bft)
11.08.2014 22:40 15,7 C 14,4 C 86 % 1011,5 hPa 0,0 l/m 0 min 0 min 0,0 UV-I 0 W/m 31,7 km/h (5 Bft)
11.08.2014 22:42 15,7 C 14,4 C 85 % 1011,5 hPa 0,0 l/m 0 min 0 min 0,0 UV-I 0 W/m 38,9 km/h (6 Bft)
11.08.2014 22:44 15,7 C 14,4 C 85 % 1011,5 hPa 0,0 l/m 0 min 0 min 0,0 UV-I 0 W/m 38,9 km/h (6 Bft)
11.08.2014 22:46 15,7 C 14,4 C 85 % 1011,5 hPa 0,0 l/m 0 min 0 min 0,0 UV-I 0 W/m 35,4 km/h (5 Bft)
11.08.2014 22:48 15,7 C 14,4 C 85 % 1011,6 hPa 0,0 l/m 0 min 0 min 0,0 UV-I 0 W/m 28,2 km/h (4 Bft)
11.08.2014 22:50 15,7 C 14,4 C 85 % 1011,6 hPa 0,0 l/m 0 min 0 min 0,0 UV-I 0 W/m 35,4 km/h (5 Bft)
11.08.2014 22:52 15,7 C 14,4 C 85 % 1011,5 hPa 0,0 l/m 0 min 0 min 0,0 UV-I 0 W/m 46,0 km/h (6 Bft)
11.08.2014 22:54 15,7 C 14,4 C 85 % 1011,5 hPa 0,0 l/m 0 min 0 min 0,0 UV-I 0 W/m 31,7 km/h (5 Bft)
11.08.2014 22:56 15,7 C 14,4 C 85 % 1011,5 hPa 0,0 l/m 0 min 0 min 0,0 UV-I 0 W/m 38,9 km/h (6 Bft)
11.08.2014 22:58 15,7 C 14,4 C 85 % 1011,4 hPa 0,0 l/m 0 min 0 min 0,0 UV-I 0 W/m 49,5 km/h (6 Bft)
11.08.2014 23:00 15,8 C 14,4 C 84 % 1011,5 hPa 0,0 l/m 0 min 0 min 0,0 UV-I 0 W/m 38,9 km/h (6 Bft)
11.08.2014 23:02 15,8 C 14,4 C 84 % 1011,5 hPa 0,0 l/m 0 min 0 min 0,0 UV-I 0 W/m 46,0 km/h (6 Bft)
11.08.2014 23:04 15,8 C 14,4 C 84 % 1011,5 hPa 0,0 l/m 0 min 0 min 0,0 UV-I 0 W/m 38,9 km/h (6 Bft)
11.08.2014 23:06 15,8 C 14,4 C 84 % 1011,5 hPa 0,0 l/m 0 min 0 min 0,0 UV-I 0 W/m 38,9 km/h (6 Bft)
11.08.2014 23:08 15,8 C 14,4 C 84 % 1011,5 hPa 0,0 l/m 0 min 0 min 0,0 UV-I 0 W/m 31,7 km/h (5 Bft)
11.08.2014 23:10 15,8 C 14,4 C 84 % 1011,5 hPa 0,0 l/m 0 min 0 min 0,0 UV-I 0 W/m 46,0 km/h (6 Bft)
11.08.2014 23:12 15,8 C 14,4 C 84 % 1011,5 hPa 0,0 l/m 0 min 0 min 0,0 UV-I 0 W/m 28,2 km/h (4 Bft)
11.08.2014 23:14 15,8 C 14,4 C 84 % 1011,4 hPa 0,0 l/m 0 min 0 min 0,0 UV-I 0 W/m 38,9 km/h (6 Bft)
11.08.2014 23:16 15,8 C 14,4 C 84 % 1011,3 hPa 0,0 l/m 0 min 0 min 0,0 UV-I 0 W/m 35,4 km/h (5 Bft)
11.08.2014 23:18 15,8 C 14,4 C 84 % 1011,4 hPa 0,0 l/m 0 min 0 min 0,0 UV-I 0 W/m 31,7 km/h (5 Bft)
11.08.2014 23:20 15,8 C 14,4 C 84 % 1011,4 hPa 0,0 l/m 0 min 0 min 0,0 UV-I 0 W/m 46,0 km/h (6 Bft)
11.08.2014 23:22 15,8 C 14,4 C 84 % 1011,3 hPa 0,0 l/m 0 min 0 min 0,0 UV-I 0 W/m 35,4 km/h (5 Bft)
11.08.2014 23:24 15,8 C 14,4 C 84 % 1011,3 hPa 0,0 l/m 0 min 0 min 0,0 UV-I 0 W/m 42,4 km/h (6 Bft)
11.08.2014 23:26 15,8 C 14,4 C 83 % 1011,4 hPa 0,0 l/m 0 min 0 min 0,0 UV-I 0 W/m 60,2 km/h (7 Bft)
11.08.2014 23:28 15,9 C 14,4 C 83 % 1011,4 hPa 0,0 l/m 0 min 0 min 0,0 UV-I 0 W/m 38,9 km/h (6 Bft)
11.08.2014 23:30 15,9 C 14,4 C 84 % 1011,3 hPa 0,0 l/m 0 min 0 min 0,0 UV-I 0 W/m 28,2 km/h (4 Bft)
11.08.2014 23:32 15,9 C 14,4 C 83 % 1011,3 hPa 0,0 l/m 0 min 0 min 0,0 UV-I 0 W/m 42,4 km/h (6 Bft)
11.08.2014 23:34 15,9 C 14,4 C 84 % 1011,3 hPa 0,0 l/m 0 min 0 min 0,0 UV-I 0 W/m 56,5 km/h (7 Bft)
11.08.2014 23:36 15,9 C 14,4 C 83 % 1011,3 hPa 0,0 l/m 0 min 0 min 0,0 UV-I 0 W/m 28,2 km/h (4 Bft)
11.08.2014 23:38 15,8 C 14,4 C 83 % 1011,3 hPa 0,0 l/m 0 min 0 min 0,0 UV-I 0 W/m 31,7 km/h (5 Bft)
11.08.2014 23:40 15,8 C 14,4 C 83 % 1011,3 hPa 0,0 l/m 0 min 0 min 0,0 UV-I 0 W/m 28,2 km/h (4 Bft)
11.08.2014 23:42 15,8 C 14,4 C 83 % 1011,3 hPa 0,0 l/m 0 min 0 min 0,0 UV-I 0 W/m 28,2 km/h (4 Bft)
11.08.2014 23:44 15,7 C 13,9 C 83 % 1011,3 hPa 0,0 l/m 0 min 0 min 0,0 UV-I 0 W/m 28,2 km/h (4 Bft)
11.08.2014 23:46 15,7 C 13,9 C 83 % 1011,3 hPa 0,0 l/m 0 min 0 min 0,0 UV-I 0 W/m 28,2 km/h (4 Bft)
11.08.2014 23:48 15,6 C 13,9 C 84 % 1011,3 hPa 0,0 l/m 0 min 0 min 0,0 UV-I 0 W/m 35,4 km/h (5 Bft)
11.08.2014 23:50 15,6 C 13,9 C 84 % 1011,3 hPa 0,0 l/m 0 min 0 min 0,0 UV-I 0 W/m 35,4 km/h (5 Bft)
11.08.2014 23:52 15,6 C 13,9 C 84 % 1011,3 hPa 0,0 l/m 0 min 0 min 0,0 UV-I 0 W/m 38,9 km/h (6 Bft)
11.08.2014 23:54 15,6 C 13,9 C 84 % 1011,2 hPa 0,0 l/m 0 min 0 min 0,0 UV-I 0 W/m 28,2 km/h (4 Bft)
11.08.2014 23:56 15,6 C 13,9 C 84 % 1011,3 hPa 0,0 l/m 0 min 0 min 0,0 UV-I 0 W/m 35,4 km/h (5 Bft)
11.08.2014 23:58 15,5 C 13,9 C 84 % 1011,2 hPa 0,0 l/m 0 min 0 min 0,0 UV-I 0 W/m 28,2 km/h (4 Bft)
_ Min-Zeit 06:22 04:20 16:28 00:00 - - - - - 04:32
Minimum _ 13,8 C 12,8 C 55 % 1006,0 hPa - - - - - 10,7 km/h (2 Bft)
_ Max-Zeit 14:44 16:30 06:16 19:00 17:10 06:28 15:14 12:52 15:46 17:08
Maximum _ 22,4 C 23,9 C 88 % 1012,2 hPa 0,6 l/m 2 min 2 min 4,4 UV-I 944 W/m 84,9 km/h
W (9 Bft)
Durchschnitt _ 17,0 C 15,8 C 78 % 1010,4 hPa #1,2 l/m #8:12 h #46 min. 2,5 UV-I 350 W/m 38,3 km/h (5 Bft)
© 2014 W. Hausmann